DW4078 Weather Reports


Display with metric or nautical units.
time (UTC)temp
F
wind
direction
speed
MPH
gust
MPH
rain 1hr
in
rain 24hr
in
rain mn
in
humidity
%
barometer
mb
20260905145103 74 109 0.0 2.0 0.00 0.08 0.00 89 1015.0
20260905145004 74 0 0.0 0.0 0.00 0.08 0.00 89 1014.9
20260905144902 74 0 0.0 0.0 0.00 0.08 0.00 89 1014.9
20260905144804 74 111 0.0 2.0 0.00 0.08 0.00 89 1014.9
20260905144703 74 111 0.0 2.0 0.00 0.08 0.00 89 1014.9
20260905144602 74 111 0.0 2.0 0.00 0.09 0.00 89 1014.8
20260905144504 73 111 0.0 2.0 0.00 0.09 0.00 90 1014.6
20260905144404 73 111 0.0 2.0 0.00 0.09 0.00 90 1014.8
20260905144303 73 111 0.0 2.0 0.00 0.09 0.00 90 1015.0
20260905144204 73 111 0.0 2.0 0.00 0.09 0.00 89 1014.8
20260905144103 73 111 0.0 2.0 0.00 0.09 0.00 90 1014.9
20260905144002 73 110 0.0 2.0 0.00 0.09 0.00 90 1014.7
20260905143903 73 110 0.0 2.0 0.00 0.09 0.00 90 1014.9
20260905143803 73 102 0.0 2.0 0.00 0.10 0.00 90 1014.8
20260905143703 73 104 0.0 2.0 0.00 0.10 0.00 90 1014.8
20260905143603 73 100 0.0 3.0 0.00 0.10 0.00 90 1014.9
20260905143525 73 102 0.0 3.0 0.00 0.10 0.00 90 1015.0
20260905143424 73 102 0.0 3.0 0.00 0.10 0.00 91 1014.9
20260905143302 73 102 0.0 3.0 0.00 0.10 0.00 91 1014.7
20260905143204 73 102 0.0 3.0 0.00 0.10 0.00 91 1014.7
20260905143102 73 102 0.0 3.0 0.00 0.10 0.00 91 1014.7
20260905143004 73 99 0.0 3.0 0.00 0.10 0.00 91 1014.6
20260905142903 73 97 0.0 3.0 0.00 0.11 0.00 91 1014.8
20260905142803 73 102 0.0 3.0 0.00 0.11 0.00 91 1014.7
20260905142703 73 100 0.0 3.0 0.00 0.11 0.00 91 1014.7
20260905142604 73 109 0.0 2.0 0.00 0.11 0.00 91 1014.7
20260905142525 73 0 0.0 0.0 0.00 0.12 0.00 92 1014.7
20260905142403 73 0 0.0 0.0 0.00 0.12 0.00 92 1014.8
20260905142305 73 0 0.0 0.0 0.00 0.12 0.00 92 1014.8
20260905142204 73 0 0.0 0.0 0.00 0.13 0.00 93 1014.3
20260905142104 73 0 0.0 0.0 0.00 0.13 0.00 93 1014.6
20260905142004 72 0 0.0 0.0 0.00 0.14 0.00 94 1014.6
20260905141902 72 0 0.0 0.0 0.00 0.14 0.00 94 1014.5
20260905141803 72 0 0.0 0.0 0.00 0.14 0.00 94 1014.6
20260905141703 72 0 0.0 0.0 0.00 0.14 0.00 95 1014.9
20260905141602 72 0 0.0 0.0 0.00 0.14 0.00 95 1014.7
20260905141504 72 0 0.0 0.0 0.00 0.15 0.00 95 1014.7
20260905141402 71 0 0.0 0.0 0.00 0.15 0.00 95 1014.7
20260905141323 71 0 0.0 0.0 0.00 0.15 0.00 95 1014.7
20260905141225 71 0 0.0 0.0 0.00 0.15 0.00 95 1014.5
20260905141103 71 0 0.0 0.0 0.00 0.15 0.00 95 1014.7
20260905141004 71 0 0.0 0.0 0.00 0.15 0.00 96 1014.7
20260905140904 71 0 0.0 0.0 0.00 0.16 0.00 96 1014.7
20260905140803 71 0 0.0 0.0 0.00 0.16 0.00 97 1014.8
20260905140704 71 0 0.0 0.0 0.00 0.16 0.00 97 1014.6
20260905140603 71 0 0.0 0.0 0.00 0.16 0.00 97 1014.8
20260905140503 71 0 0.0 0.0 0.00 0.16 0.00 97 1014.7
20260905140404 71 0 0.0 0.0 0.00 0.16 0.00 97 1014.7
20260905140303 71 0 0.0 0.0 0.00 0.16 0.00 97 1014.7
20260905140203 71 0 0.0 0.0 0.00 0.16 0.00 97 1014.6
20260905140024 71 0 0.0 0.0 0.00 0.16 0.00 98 1014.7
20260905135904 71 0 0.0 0.0 0.00 0.16 0.00 98 1014.9
20260905135803 71 0 0.0 0.0 0.00 0.16 0.00 98 1014.7
20260905135703 71 0 0.0 0.0 0.00 0.16 0.00 98 1014.6
20260905135603 70 0 0.0 0.0 0.00 0.16 0.00 98 1014.8
20260905135504 70 0 0.0 0.0 0.00 0.16 0.00 98 1014.9
20260905135403 70 0 0.0 0.0 0.00 0.16 0.00 98 1014.8
20260905135306 70 0 0.0 0.0 0.00 0.16 0.00 98 1014.8
20260905135203 70 0 0.0 0.0 0.00 0.16 0.00 98 1014.9
20260905135104 70 0 0.0 0.0 0.00 0.16 0.00 98 1014.7
20260905135003 70 94 0.0 2.0 0.00 0.16 0.00 98 1014.8
20260905134904 70 107 0.0 2.0 0.00 0.17 0.00 98 1014.8
20260905134803 70 107 0.0 2.0 0.00 0.17 0.00 98 1014.8
20260905134704 70 108 0.0 2.0 0.00 0.17 0.00 98 1014.7
20260905134603 70 112 0.0 2.0 0.00 0.17 0.00 98 1014.8
20260905134503 70 112 0.0 2.0 0.00 0.17 0.00 99 1014.6
20260905134403 70 112 0.0 2.0 0.00 0.18 0.00 98 1014.7
20260905134303 70 112 0.0 2.0 0.00 0.18 0.00 99 1014.8
20260905134203 70 111 0.0 2.0 0.00 0.18 0.00 99 1014.7
20260905134125 70 110 0.0 2.0 0.00 0.19 0.00 99 1014.5
20260905134003 70 115 0.0 2.0 0.00 0.21 0.00 99 1014.6
20260905133903 70 113 0.0 2.0 0.00 0.22 0.00 99 1014.8
20260905133803 70 113 0.0 2.0 0.00 0.24 0.00 99 1014.7
20260905133703 70 115 0.0 2.0 0.00 0.25 0.00 99 1014.7
20260905133603 70 114 0.0 2.0 0.00 0.27 0.00 99 1014.5
20260905133503 70 114 0.0 2.0 0.00 0.28 0.00 99 1014.6
20260905133402 70 113 0.0 2.0 0.00 0.30 0.00 99 1014.6
20260905133302 70 113 0.0 2.0 0.00 0.32 0.00 99 1014.7
20260905133203 70 118 0.0 2.0 0.00 0.35 0.00 99 1014.6
20260905133103 70 125 0.0 3.0 0.00 0.39 0.00 99 1014.7
20260905133003 70 131 1.0 4.0 0.00 0.40 0.00 99 1014.6
20260905132924 70 132 1.0 4.0 0.00 0.40 0.00 99 1014.6
20260905132804 70 131 1.0 4.0 0.00 0.41 0.00 99 1014.6
20260905132704 70 132 1.0 4.0 0.00 0.41 0.00 99 1014.5
20260905132623 70 132 1.0 4.0 0.00 0.42 0.00 99 1014.5
20260905132503 69 132 1.0 4.0 0.00 0.43 0.00 99 1014.8
20260905132424 69 132 1.0 4.0 0.00 0.46 0.00 99 1014.8
20260905132305 69 136 1.0 4.0 0.00 0.47 0.00 99 1014.8
20260905132203 69 136 0.0 4.0 0.00 0.47 0.00 99 1014.8
20260905132124 69 138 0.0 4.0 0.00 0.47 0.00 99 1014.8
20260905132002 69 124 0.0 2.0 0.00 0.47 0.00 99 1014.8
20260905131903 69 126 0.0 2.0 0.00 0.47 0.00 99 1014.8
20260905131803 69 132 0.0 1.0 0.00 0.47 0.00 99 1014.8
20260905131704 69 0 0.0 0.0 0.00 0.47 0.00 99 1014.8
20260905131603 69 0 0.0 0.0 0.00 0.47 0.00 99 1014.9
20260905131524 69 0 0.0 0.0 0.00 0.47 0.00 99 1014.8
20260905131425 69 0 0.0 0.0 0.00 0.47 0.00 99 1014.9
20260905131324 69 0 0.0 0.0 0.00 0.47 0.00 99 1015.0
20260905131224 69 115 0.0 1.0 0.00 0.47 0.00 99 1014.9
20260905131103 69 115 0.0 1.0 0.00 0.47 0.00 99 1015.0
20260905131004 69 115 0.0 1.0 0.00 0.47 0.00 99 1014.9
20260905130903 69 115 0.0 1.0 0.00 0.47 0.00 99 1014.9
20260905130803 69 128 0.0 1.0 0.00 0.47 0.00 99 1014.9
20260905130703 69 128 0.0 1.0 0.00 0.47 0.00 99 1015.0
20260905130603 69 128 0.0 1.0 0.00 0.47 0.00 99 1015.1
20260905130524 69 128 0.0 1.0 0.00 0.47 0.00 99 1014.9
20260905130403 69 128 0.0 1.0 0.00 0.47 0.00 99 1014.8
20260905130302 69 128 0.0 1.0 0.00 0.47 0.00 99 1015.0
20260905130203 69 137 0.0 1.0 0.00 0.47 0.00 99 1015.1
20260905130004 69 137 0.0 1.0 0.00 0.47 0.00 99 1014.9
20260905125902 69 137 0.0 1.0 0.00 0.47 0.00 99 1015.2
20260905125804 69 0 0.0 0.0 0.00 0.47 0.00 99 1015.1
20260905125703 69 0 0.0 0.0 0.00 0.47 0.00 99 1015.0
20260905125603 69 0 0.0 0.0 0.00 0.47 0.00 99 1015.1
20260905125525 69 123 0.0 1.0 0.00 0.47 0.00 99 1015.1
20260905125404 69 129 0.0 1.0 0.00 0.47 0.00 99 1015.0
20260905125306 69 131 0.0 2.0 0.00 0.47 0.00 99 1015.1
20260905125204 69 131 0.0 2.0 0.00 0.47 0.00 99 1015.1
20260905125103 69 131 0.0 2.0 0.00 0.47 0.00 99 1015.2
20260905125003 69 131 0.0 2.0 0.00 0.47 0.00 99 1015.2
20260905124903 69 131 0.0 2.0 0.00 0.47 0.00 99 1015.0
20260905124824 69 131 0.0 2.0 0.00 0.47 0.00 99 1015.1
20260905124725 69 131 0.0 2.0 0.00 0.47 0.00 99 1015.2
20260905124603 69 131 0.0 2.0 0.00 0.47 0.00 99 1014.9
20260905124504 69 133 0.0 2.0 0.00 0.47 0.00 99 1015.0
20260905124424 69 134 0.0 2.0 0.00 0.47 0.00 99 1015.1
20260905124303 69 118 0.0 2.0 0.00 0.47 0.00 99 1015.1
20260905124204 69 118 0.0 2.0 0.00 0.47 0.00 99 1015.1
20260905124104 69 118 0.0 2.0 0.00 0.47 0.00 99 1014.9
20260905124003 69 118 0.0 2.0 0.00 0.47 0.00 99 1014.9
20260905123903 69 118 0.0 2.0 0.00 0.47 0.00 99 1015.0
20260905123824 69 120 0.0 2.0 0.00 0.47 0.00 99 1015.0
20260905123704 69 120 0.0 2.0 0.00 0.47 0.00 99 1014.8
20260905123603 69 120 0.0 2.0 0.00 0.47 0.00 99 1014.9
20260905123503 69 120 0.0 2.0 0.00 0.47 0.00 99 1014.9
20260905123403 69 120 0.0 2.0 0.00 0.47 0.00 99 1015.0
20260905123302 69 122 0.0 2.0 0.00 0.47 0.00 99 1014.9
20260905123203 69 131 0.0 1.0 0.00 0.47 0.00 99 1014.8
20260905123103 69 133 0.0 1.0 0.00 0.47 0.00 99 1014.7
20260905123004 69 133 0.0 1.0 0.00 0.47 0.00 99 1014.8
20260905122903 69 133 0.0 1.0 0.00 0.47 0.00 99 1014.8
20260905122803 69 0 0.0 0.0 0.00 0.47 0.00 99 1014.9
20260905122704 69 0 0.0 0.0 0.00 0.47 0.00 99 1014.9
20260905122623 69 0 0.0 0.0 0.00 0.47 0.00 99 1014.8
20260905122504 69 0 0.0 0.0 0.00 0.47 0.00 99 1014.6
20260905122404 69 0 0.0 0.0 0.00 0.47 0.00 99 1014.7
20260905122306 69 121 0.0 1.0 0.00 0.47 0.00 99 1014.8
20260905122204 69 123 0.0 2.0 0.00 0.47 0.00 99 1014.8
20260905122103 69 123 0.0 2.0 0.00 0.47 0.00 99 1014.8
20260905122003 69 123 0.0 2.0 0.00 0.47 0.00 99 1014.7
20260905121903 69 123 0.0 2.0 0.00 0.47 0.00 99 1015.0
20260905121803 69 123 0.0 2.0 0.00 0.47 0.00 99 1014.5
20260905121702 68 123 0.0 2.0 0.00 0.47 0.00 99 1014.8
20260905121603 68 123 0.0 2.0 0.00 0.47 0.00 99 1014.7
20260905121525 68 123 0.0 2.0 0.00 0.47 0.00 99 1014.7
20260905121403 68 123 0.0 2.0 0.00 0.47 0.00 99 1014.7
20260905121302 68 124 0.0 2.0 0.00 0.47 0.00 99 1014.7
20260905121225 68 0 0.0 0.0 0.00 0.47 0.00 99 1014.8
20260905121103 68 0 0.0 0.0 0.00 0.47 0.00 99 1014.8
20260905121002 68 0 0.0 0.0 0.00 0.47 0.00 99 1014.7
20260905120924 68 0 0.0 0.0 0.00 0.47 0.00 99 1014.7
20260905120802 68 0 0.0 0.0 0.00 0.47 0.00 99 1014.8
20260905120704 68 0 0.0 0.0 0.00 0.47 0.00 99 1014.6
20260905120603 68 0 0.0 0.0 0.00 0.47 0.00 99 1014.7
20260905120523 68 0 0.0 0.0 0.00 0.47 0.00 99 1014.9
20260905120402 68 0 0.0 0.0 0.00 0.47 0.00 99 1014.8
20260905120304 68 0 0.0 0.0 0.00 0.47 0.00 99 1014.7
20260905120202 68 0 0.0 0.0 0.00 0.47 0.00 99 1014.8
20260905120003 68 0 0.0 0.0 0.00 0.47 0.00 99 1014.7
20260905115903 68 0 0.0 0.0 0.00 0.47 0.00 99 1014.7
20260905115804 68 0 0.0 0.0 0.00 0.47 0.00 99 1014.9
20260905115704 68 0 0.0 0.0 0.00 0.47 0.00 99 1014.8
20260905115625 68 0 0.0 0.0 0.00 0.47 0.00 99 1014.7
20260905115503 68 0 0.0 0.0 0.00 0.47 0.00 99 1014.7
20260905115404 68 0 0.0 0.0 0.00 0.47 0.00 99 1014.7
20260905115306 68 0 0.0 0.0 0.00 0.47 0.00 99 1014.5
20260905115204 68 0 0.0 0.0 0.00 0.47 0.00 99 1014.8
20260905115103 68 0 0.0 0.0 0.00 0.47 0.00 99 1014.6
20260905115004 68 0 0.0 0.0 0.00 0.47 0.00 99 1014.5
20260905114904 68 0 0.0 0.0 0.00 0.47 0.00 99 1014.5
20260905114803 68 0 0.0 0.0 0.00 0.47 0.00 99 1014.7
20260905114725 68 0 0.0 0.0 0.00 0.47 0.00 99 1014.6
20260905114603 68 0 0.0 0.0 0.00 0.47 0.00 99 1014.5
20260905114503 68 0 0.0 0.0 0.00 0.47 0.00 99 1014.5
20260905114404 68 0 0.0 0.0 0.00 0.47 0.00 99 1014.6
20260905114303 68 0 0.0 0.0 0.00 0.47 0.00 99 1014.4
20260905114203 68 0 0.0 0.0 0.00 0.47 0.00 99 1014.4
20260905114105 68 0 0.0 0.0 0.00 0.47 0.00 99 1014.5
20260905114025 67 0 0.0 0.0 0.00 0.47 0.00 99 1014.3
20260905113904 67 0 0.0 0.0 0.00 0.47 0.00 99 1014.5
20260905113804 67 0 0.0 0.0 0.00 0.47 0.00 99 1014.7
20260905113703 67 0 0.0 0.0 0.00 0.47 0.00 99 1014.5
20260905113602 68 0 0.0 0.0 0.00 0.47 0.00 99 1014.4
20260905113504 68 0 0.0 0.0 0.00 0.47 0.00 99 1014.4
20260905113403 68 0 0.0 0.0 0.00 0.47 0.00 99 1014.5
20260905113303 68 0 0.0 0.0 0.00 0.47 0.00 99 1014.6
20260905113203 68 0 0.0 0.0 0.00 0.47 0.00 99 1014.6
20260905113104 68 0 0.0 0.0 0.00 0.47 0.00 99 1014.4
20260905113003 68 0 0.0 0.0 0.00 0.47 0.00 99 1014.7
20260905112903 68 0 0.0 0.0 0.00 0.47 0.00 99 1014.6
20260905112803 68 0 0.0 0.0 0.00 0.47 0.00 99 1014.6
20260905112703 68 0 0.0 0.0 0.00 0.47 0.00 99 1014.5
20260905112603 68 0 0.0 0.0 0.00 0.47 0.00 99 1014.5
20260905112524 68 0 0.0 0.0 0.00 0.47 0.00 99 1014.5
20260905112403 68 0 0.0 0.0 0.00 0.47 0.00 99 1014.5
20260905112305 68 0 0.0 0.0 0.00 0.47 0.00 99 1014.5
20260905112203 68 0 0.0 0.0 0.00 0.47 0.00 99 1014.4
20260905112103 68 0 0.0 0.0 0.00 0.47 0.00 99 1014.5
20260905112004 68 0 0.0 0.0 0.00 0.47 0.00 99 1014.5
20260905111902 68 0 0.0 0.0 0.00 0.47 0.00 99 1014.5
20260905111803 68 0 0.0 0.0 0.00 0.47 0.00 99 1014.4
20260905111704 68 0 0.0 0.0 0.00 0.47 0.00 99 1014.4
20260905111602 67 0 0.0 0.0 0.00 0.47 0.00 99 1014.3
20260905111504 67 0 0.0 0.0 0.00 0.47 0.00 99 1014.3
20260905111404 67 0 0.0 0.0 0.00 0.47 0.00 99 1014.6
20260905111304 68 0 0.0 0.0 0.00 0.47 0.00 99 1014.3
20260905111203 68 0 0.0 0.0 0.00 0.47 0.00 99 1014.3
20260905111104 68 0 0.0 0.0 0.00 0.47 0.00 99 1014.4
20260905111004 68 0 0.0 0.0 0.00 0.47 0.00 99 1014.4
20260905110924 68 0 0.0 0.0 0.00 0.47 0.00 99 1014.6
20260905110803 68 0 0.0 0.0 0.00 0.47 0.00 99 1014.4
20260905110703 68 0 0.0 0.0 0.00 0.47 0.00 99 1014.6
20260905110603 68 0 0.0 0.0 0.00 0.47 0.00 99 1014.4
20260905110502 68 0 0.0 0.0 0.00 0.47 0.00 99 1014.5
20260905110404 68 0 0.0 0.0 0.00 0.47 0.00 99 1014.6
20260905110304 68 0 0.0 0.0 0.00 0.47 0.00 99 1014.6
20260905110224 68 0 0.0 0.0 0.00 0.47 0.00 99 1014.5
20260905110004 68 0 0.0 0.0 0.00 0.47 0.00 99 1014.6
20260905105924 68 0 0.0 0.0 0.00 0.47 0.00 99 1014.5
20260905105803 68 0 0.0 0.0 0.00 0.47 0.00 99 1014.7
20260905105724 68 0 0.0 0.0 0.00 0.47 0.00 99 1014.8
20260905105624 68 0 0.0 0.0 0.00 0.47 0.00 99 1014.6
20260905105503 68 0 0.0 0.0 0.00 0.47 0.00 99 1014.8
20260905105402 68 0 0.0 0.0 0.00 0.47 0.00 99 1014.8
20260905105306 68 0 0.0 0.0 0.00 0.47 0.00 99 1014.9
20260905105224 68 0 0.0 0.0 0.00 0.47 0.00 99 1014.7
20260905105102 68 0 0.0 0.0 0.00 0.47 0.00 99 1014.7
20260905105025 68 0 0.0 0.0 0.00 0.47 0.00 99 1015.0
20260905104903 68 0 0.0 0.0 0.00 0.47 0.00 99 1014.8
20260905104803 68 0 0.0 0.0 0.00 0.47 0.00 99 1014.8
20260905104703 68 0 0.0 0.0 0.00 0.47 0.00 99 1014.8
20260905104624 68 0 0.0 0.0 0.00 0.47 0.00 99 1015.1
20260905104504 68 0 0.0 0.0 0.00 0.47 0.00 99 1014.8
20260905104403 68 0 0.0 0.0 0.00 0.47 0.00 99 1014.9
20260905104303 68 0 0.0 0.0 0.00 0.47 0.00 99 1015.0
20260905104202 68 0 0.0 0.0 0.00 0.47 0.00 99 1015.1
20260905104103 68 0 0.0 0.0 0.00 0.47 0.00 99 1015.1
20260905104003 68 124 0.0 1.0 0.00 0.47 0.00 99 1015.1
20260905103903 68 137 0.0 2.0 0.00 0.47 0.00 99 1015.2
20260905103803 68 161 0.0 3.0 0.00 0.47 0.00 99 1015.2
20260905103704 68 159 0.0 3.0 0.00 0.47 0.00 99 1015.2
20260905103604 68 159 0.0 3.0 0.00 0.47 0.00 99 1015.0
20260905103503 68 159 0.0 3.0 0.00 0.47 0.00 99 1015.0
20260905103403 68 159 0.0 3.0 0.00 0.47 0.00 99 1015.1
20260905103303 68 159 0.0 3.0 0.00 0.47 0.00 99 1015.1
20260905103204 68 159 0.0 3.0 0.00 0.47 0.00 99 1015.3
20260905103124 68 159 0.0 3.0 0.00 0.47 0.00 99 1015.3
20260905103025 68 164 0.0 3.0 0.00 0.47 0.00 99 1015.2
20260905102904 68 182 0.0 3.0 0.00 0.47 0.00 99 1015.2
20260905102803 68 128 0.0 1.0 0.00 0.47 0.00 99 1015.2
20260905102724 68 0 0.0 0.0 0.00 0.47 0.00 99 1015.2
20260905102603 68 0 0.0 0.0 0.00 0.47 0.00 99 1015.2
20260905102524 68 0 0.0 0.0 0.00 0.47 0.00 99 1015.2
20260905102403 68 0 0.0 0.0 0.00 0.47 0.00 99 1015.1
20260905102306 68 0 0.0 0.0 0.00 0.47 0.00 99 1015.1
20260905102224 68 0 0.0 0.0 0.00 0.47 0.00 99 1015.1
20260905102103 68 0 0.0 0.0 0.00 0.47 0.00 99 1015.2
20260905102004 68 0 0.0 0.0 0.00 0.47 0.00 99 1015.2
20260905101902 68 0 0.0 0.0 0.00 0.47 0.00 99 1015.0
20260905101803 68 151 0.0 1.0 0.00 0.47 0.00 99 1015.0
20260905101703 68 151 0.0 1.0 0.00 0.47 0.00 99 1015.4
20260905101624 68 151 0.0 1.0 0.00 0.47 0.00 99 1015.4
20260905101503 68 151 0.0 1.0 0.00 0.47 0.00 99 1015.3
20260905101404 68 151 0.0 1.0 0.00 0.47 0.00 99 1015.3
20260905101304 68 151 0.0 1.0 0.00 0.47 0.00 99 1015.4
20260905101223 68 151 0.0 1.0 0.00 0.47 0.00 99 1015.4
20260905101103 68 151 0.0 1.0 0.00 0.47 0.00 99 1015.3
20260905101004 68 151 0.0 1.0 0.00 0.47 0.00 99 1015.3
20260905100904 68 151 0.0 1.0 0.00 0.47 0.00 99 1015.4
20260905100803 68 0 0.0 0.0 0.00 0.47 0.00 99 1015.0
20260905100704 68 0 0.0 0.0 0.00 0.47 0.00 99 1015.1
20260905100623 68 0 0.0 0.0 0.00 0.47 0.00 99 1015.2
20260905100503 68 0 0.0 0.0 0.00 0.47 0.00 99 1015.2
20260905100404 68 0 0.0 0.0 0.00 0.47 0.00 99 1015.0
20260905100303 68 0 0.0 0.0 0.00 0.47 0.00 99 1015.0
20260905100203 68 0 0.0 0.0 0.00 0.47 0.00 99 1014.9
20260905100106 68 0 0.0 0.0 0.00 0.47 0.00 99 1014.9
20260905100003 68 0 0.0 0.0 0.00 0.47 0.00 99 1015.0
20260905095903 68 0 0.0 0.0 0.00 0.47 0.00 99 1015.1
20260905095824 68 0 0.0 0.0 0.00 0.47 0.00 99 1015.1
20260905095703 68 0 0.0 0.0 0.00 0.47 0.00 99 1015.1
20260905095604 68 0 0.0 0.0 0.00 0.47 0.00 99 1015.0
20260905095523 68 0 0.0 0.0 0.00 0.47 0.00 99 1015.1
20260905095402 68 0 0.0 0.0 0.00 0.47 0.00 99 1014.8
20260905095325 68 0 0.0 0.0 0.00 0.47 0.00 99 1014.8
20260905095224 68 0 0.0 0.0 0.00 0.47 0.00 99 1014.9
20260905095103 68 0 0.0 0.0 0.00 0.47 0.00 99 1014.9
20260905095003 68 0 0.0 0.0 0.00 0.47 0.00 99 1014.9
20260905094924 68 0 0.0 0.0 0.00 0.47 0.00 99 1014.7
20260905094803 68 0 0.0 0.0 0.00 0.47 0.00 99 1014.8
20260905094704 68 0 0.0 0.0 0.00 0.47 0.00 99 1014.9
20260905094603 68 0 0.0 0.0 0.00 0.47 0.00 99 1014.7
20260905094503 68 0 0.0 0.0 0.00 0.47 0.00 99 1014.5
20260905094403 68 0 0.0 0.0 0.00 0.47 0.00 99 1014.8
20260905094304 68 0 0.0 0.0 0.00 0.47 0.00 99 1014.7
20260905094203 68 0 0.0 0.0 0.00 0.47 0.00 99 1014.6
20260905094103 68 0 0.0 0.0 0.00 0.47 0.00 99 1014.5
20260905094002 68 0 0.0 0.0 0.00 0.47 0.00 99 1014.4
20260905093904 68 0 0.0 0.0 0.00 0.47 0.00 99 1014.3
20260905093803 68 0 0.0 0.0 0.00 0.47 0.00 99 1014.6
20260905093704 68 0 0.0 0.0 0.00 0.47 0.00 99 1014.4
20260905093604 68 0 0.0 0.0 0.00 0.47 0.00 99 1014.4
20260905093524 68 0 0.0 0.0 0.00 0.47 0.00 99 1014.3
20260905093404 68 0 0.0 0.0 0.00 0.47 0.00 99 1014.4
20260905093323 68 0 0.0 0.0 0.00 0.47 0.00 99 1014.3
20260905093203 68 0 0.0 0.0 0.00 0.47 0.00 99 1014.3
20260905093104 68 0 0.0 0.0 0.00 0.47 0.00 99 1014.3
20260905093024 68 0 0.0 0.0 0.00 0.47 0.00 99 1014.4
20260905092904 68 0 0.0 0.0 0.00 0.47 0.00 99 1014.5
20260905092804 68 0 0.0 0.0 0.00 0.47 0.00 99 1014.4
20260905092703 68 0 0.0 0.0 0.00 0.47 0.00 99 1014.3
20260905092624 68 0 0.0 0.0 0.00 0.47 0.00 99 1014.3
20260905092504 68 0 0.0 0.0 0.00 0.47 0.00 99 1014.5
20260905092403 68 0 0.0 0.0 0.00 0.47 0.00 99 1014.4
20260905092306 68 0 0.0 0.0 0.00 0.47 0.00 99 1014.2
20260905092203 68 0 0.0 0.0 0.00 0.47 0.00 99 1014.2
20260905092103 68 0 0.0 0.0 0.00 0.47 0.00 99 1014.1
20260905092004 68 0 0.0 0.0 0.00 0.47 0.00 99 1014.2
20260905091903 68 0 0.0 0.0 0.00 0.47 0.00 99 1014.1
20260905091823 68 0 0.0 0.0 0.00 0.47 0.00 99 1014.1
20260905091703 68 0 0.0 0.0 0.00 0.47 0.00 99 1014.1
20260905091604 68 0 0.0 0.0 0.00 0.47 0.00 99 1014.1
20260905091504 68 0 0.0 0.0 0.00 0.47 0.00 99 1014.1
20260905091403 68 0 0.0 0.0 0.00 0.47 0.00 99 1014.3
20260905091304 68 0 0.0 0.0 0.00 0.47 0.00 99 1014.3
20260905091203 68 0 0.0 0.0 0.00 0.47 0.00 99 1014.1
20260905091103 68 0 0.0 0.0 0.00 0.47 0.00 99 1014.2
20260905091002 68 0 0.0 0.0 0.00 0.47 0.00 99 1014.2
20260905090903 68 0 0.0 0.0 0.00 0.47 0.00 99 1014.4
20260905090825 68 0 0.0 0.0 0.00 0.47 0.00 99 1014.1
20260905090704 68 0 0.0 0.0 0.00 0.47 0.00 99 1014.3
20260905090603 68 0 0.0 0.0 0.00 0.47 0.00 99 1014.2
20260905090503 68 0 0.0 0.0 0.00 0.47 0.00 99 1014.3
20260905090404 68 0 0.0 0.0 0.00 0.47 0.00 99 1014.2
20260905090303 68 0 0.0 0.0 0.00 0.47 0.00 99 1014.1
20260905090203 68 0 0.0 0.0 0.00 0.47 0.00 99 1014.0
20260905090003 68 0 0.0 0.0 0.00 0.47 0.00 99 1014.2
20260905085903 68 0 0.0 0.0 0.00 0.47 0.00 99 1014.3
20260905085803 68 0 0.0 0.0 0.00 0.47 0.00 99 1014.2
20260905085703 68 0 0.0 0.0 0.00 0.47 0.00 99 1014.5
20260905085603 68 0 0.0 0.0 0.00 0.47 0.00 99 1014.2
20260905085503 68 0 0.0 0.0 0.00 0.47 0.00 99 1014.2
20260905085403 68 0 0.0 0.0 0.00 0.47 0.00 99 1014.3
20260905085306 68 0 0.0 0.0 0.00 0.47 0.00 99 1014.3
20260905085203 68 0 0.0 0.0 0.00 0.47 0.00 99 1014.4
20260905085103 67 0 0.0 0.0 0.00 0.47 0.00 99 1014.4
20260905085003 67 0 0.0 0.0 0.00 0.47 0.00 99 1014.4
20260905084903 67 0 0.0 0.0 0.00 0.47 0.00 99 1014.3
20260905084825 67 0 0.0 0.0 0.00 0.47 0.00 99 1014.1
20260905084703 67 0 0.0 0.0 0.00 0.47 0.00 99 1014.2
20260905084603 67 0 0.0 0.0 0.00 0.47 0.00 99 1014.2
20260905084502 67 0 0.0 0.0 0.00 0.47 0.00 99 1014.2
20260905084404 67 0 0.0 0.0 0.00 0.47 0.00 99 1014.4
20260905084324 67 0 0.0 0.0 0.00 0.47 0.00 99 1014.3
20260905084204 67 0 0.0 0.0 0.00 0.47 0.00 99 1014.2
20260905084104 67 0 0.0 0.0 0.00 0.47 0.00 99 1014.2
20260905084004 67 0 0.0 0.0 0.00 0.47 0.00 99 1014.0
20260905083903 67 0 0.0 0.0 0.00 0.47 0.00 99 1014.0
20260905083804 67 0 0.0 0.0 0.00 0.47 0.00 99 1013.9
20260905083703 67 0 0.0 0.0 0.00 0.47 0.00 99 1014.1
20260905083602 67 0 0.0 0.0 0.00 0.47 0.00 99 1014.0
20260905083503 67 0 0.0 0.0 0.00 0.47 0.00 99 1013.9
20260905083404 67 0 0.0 0.0 0.00 0.47 0.00 99 1013.7
20260905083303 67 0 0.0 0.0 0.00 0.47 0.00 99 1013.7
20260905083203 67 0 0.0 0.0 0.00 0.47 0.00 99 1013.5
20260905083104 67 0 0.0 0.0 0.00 0.47 0.00 99 1013.6
20260905083004 67 0 0.0 0.0 0.00 0.47 0.00 99 1013.5
20260905082902 67 0 0.0 0.0 0.00 0.47 0.00 99 1013.6
20260905082803 67 0 0.0 0.0 0.00 0.47 0.00 99 1013.3
20260905082703 67 0 0.0 0.0 0.00 0.47 0.00 99 1013.3
20260905082602 67 0 0.0 0.0 0.00 0.47 0.00 99 1013.3
20260905082503 67 0 0.0 0.0 0.00 0.47 0.00 99 1013.4
20260905082424 67 0 0.0 0.0 0.00 0.47 0.00 99 1013.4
20260905082325 67 0 0.0 0.0 0.00 0.47 0.00 99 1013.6
20260905082203 67 0 0.0 0.0 0.00 0.47 0.00 99 1013.6
20260905082103 67 0 0.0 0.0 0.00 0.47 0.00 99 1013.5
20260905082003 67 0 0.0 0.0 0.00 0.47 0.00 99 1013.5
20260905081904 67 0 0.0 0.0 0.00 0.47 0.00 99 1013.5
20260905081803 67 0 0.0 0.0 0.00 0.47 0.00 99 1013.7
20260905081725 67 0 0.0 0.0 0.00 0.47 0.00 99 1013.4
20260905081604 67 0 0.0 0.0 0.00 0.47 0.00 99 1013.7
20260905081504 67 0 0.0 0.0 0.00 0.47 0.00 99 1013.6
20260905081425 67 0 0.0 0.0 0.00 0.47 0.00 99 1013.5
20260905081304 67 0 0.0 0.0 0.00 0.47 0.00 99 1013.8
20260905081204 67 0 0.0 0.0 0.00 0.47 0.00 99 1013.7
20260905081103 67 0 0.0 0.0 0.00 0.47 0.00 99 1013.8
20260905081004 67 0 0.0 0.0 0.00 0.47 0.00 99 1013.7
20260905080903 67 0 0.0 0.0 0.00 0.47 0.00 99 1013.8
20260905080804 67 0 0.0 0.0 0.00 0.47 0.00 99 1013.7
20260905080703 67 0 0.0 0.0 0.00 0.47 0.00 99 1013.8
20260905080604 67 0 0.0 0.0 0.00 0.47 0.00 99 1013.8
20260905080503 67 0 0.0 0.0 0.00 0.47 0.00 99 1013.7
20260905080404 66 0 0.0 0.0 0.00 0.47 0.00 99 1013.8
20260905080324 66 0 0.0 0.0 0.00 0.47 0.00 99 1013.9
20260905080203 66 0 0.0 0.0 0.00 0.47 0.00 99 1014.0
20260905080004 66 0 0.0 0.0 0.00 0.47 0.00 99 1014.1
20260905075904 66 0 0.0 0.0 0.00 0.47 0.00 99 1014.1
20260905075804 66 0 0.0 0.0 0.00 0.47 0.00 99 1014.0
20260905075703 66 0 0.0 0.0 0.00 0.47 0.00 99 1014.2
20260905075625 66 0 0.0 0.0 0.00 0.47 0.00 99 1014.0
20260905075524 66 0 0.0 0.0 0.00 0.47 0.00 99 1014.1
20260905075404 66 0 0.0 0.0 0.00 0.47 0.00 99 1014.1
20260905075306 66 0 0.0 0.0 0.00 0.47 0.00 99 1013.9
20260905075204 66 0 0.0 0.0 0.00 0.47 0.00 99 1014.2
20260905075103 66 0 0.0 0.0 0.00 0.47 0.00 99 1013.9
20260905075003 66 0 0.0 0.0 0.00 0.47 0.00 99 1013.9
20260905074903 66 0 0.0 0.0 0.00 0.47 0.00 99 1013.9
20260905074804 66 0 0.0 0.0 0.00 0.47 0.00 99 1014.2
20260905074703 66 0 0.0 0.0 0.00 0.47 0.00 99 1014.0
20260905074603 66 0 0.0 0.0 0.00 0.47 0.00 99 1014.1
20260905074503 66 0 0.0 0.0 0.00 0.47 0.00 99 1014.1
20260905074402 66 0 0.0 0.0 0.00 0.47 0.00 99 1013.9
20260905074325 66 0 0.0 0.0 0.00 0.47 0.00 99 1014.0
20260905074224 66 0 0.0 0.0 0.00 0.47 0.00 99 1014.0
20260905074103 66 0 0.0 0.0 0.00 0.47 0.00 99 1014.1
20260905074004 66 0 0.0 0.0 0.00 0.47 0.00 99 1014.0
20260905073903 66 0 0.0 0.0 0.00 0.47 0.00 99 1014.0
20260905073825 66 0 0.0 0.0 0.00 0.47 0.00 99 1013.9
20260905073724 66 0 0.0 0.0 0.00 0.47 0.00 99 1014.1
20260905073604 66 0 0.0 0.0 0.00 0.47 0.00 99 1013.9
20260905073503 66 0 0.0 0.0 0.00 0.47 0.00 99 1013.9
20260905073404 66 0 0.0 0.0 0.00 0.47 0.00 99 1013.7
20260905073303 66 0 0.0 0.0 0.00 0.47 0.00 99 1013.8
20260905073224 66 0 0.0 0.0 0.00 0.47 0.00 99 1013.8
20260905073104 66 0 0.0 0.0 0.00 0.47 0.00 99 1013.9
20260905073004 66 0 0.0 0.0 0.00 0.47 0.00 99 1013.8
20260905072903 66 0 0.0 0.0 0.00 0.47 0.00 99 1013.9
20260905072803 66 0 0.0 0.0 0.00 0.47 0.00 99 1014.1
20260905072704 66 0 0.0 0.0 0.00 0.47 0.00 99 1014.1
20260905072604 66 0 0.0 0.0 0.00 0.47 0.00 99 1014.1
20260905072524 66 0 0.0 0.0 0.00 0.47 0.00 99 1014.0
20260905072403 66 0 0.0 0.0 0.00 0.47 0.00 99 1014.2
20260905072305 66 0 0.0 0.0 0.00 0.47 0.00 99 1014.1
20260905072204 66 0 0.0 0.0 0.00 0.47 0.00 99 1014.1
20260905072103 66 0 0.0 0.0 0.00 0.47 0.00 99 1014.0
20260905072003 66 0 0.0 0.0 0.00 0.47 0.00 99 1014.1
20260905071903 66 0 0.0 0.0 0.00 0.47 0.00 99 1014.0
20260905071804 66 0 0.0 0.0 0.00 0.47 0.00 99 1014.0
20260905071704 66 0 0.0 0.0 0.00 0.47 0.00 99 1014.1
20260905071603 66 0 0.0 0.0 0.00 0.47 0.00 99 1014.0
20260905071502 66 0 0.0 0.0 0.00 0.47 0.00 99 1013.8
20260905071402 66 0 0.0 0.0 0.00 0.47 0.00 99 1013.9
20260905071325 66 0 0.0 0.0 0.00 0.47 0.00 99 1014.0
20260905071204 66 0 0.0 0.0 0.00 0.47 0.00 99 1013.8
20260905071103 66 0 0.0 0.0 0.00 0.47 0.00 99 1013.8
20260905071003 66 0 0.0 0.0 0.00 0.47 0.00 99 1013.7
20260905070903 66 0 0.0 0.0 0.00 0.47 0.00 99 1013.7
20260905070802 66 0 0.0 0.0 0.00 0.47 0.00 99 1013.8
20260905070703 66 0 0.0 0.0 0.00 0.47 0.00 99 1013.7
20260905070603 66 0 0.0 0.0 0.00 0.47 0.00 99 1013.9
20260905070503 66 0 0.0 0.0 0.00 0.47 0.00 99 1013.9
20260905070403 66 0 0.0 0.0 0.00 0.47 0.00 99 1013.9
20260905070303 66 0 0.0 0.0 0.00 0.47 0.00 99 1013.8
20260905070203 66 0 0.0 0.0 0.00 0.47 0.00 99 1013.8
20260905070104 66 0 0.0 0.0 0.00 0.47 0.00 99 1013.8
20260905070004 66 0 0.0 0.0 0.00 0.47 0.00 99 1013.9
20260905065903 66 0 0.0 0.0 0.00 0.47 0.00 99 1013.7
20260905065802 66 0 0.0 0.0 0.00 0.47 0.00 99 1013.9
20260905065703 66 0 0.0 0.0 0.00 0.47 0.00 99 1013.9
20260905065604 66 0 0.0 0.0 0.00 0.47 0.00 99 1013.9
20260905065503 66 0 0.0 0.0 0.00 0.47 0.00 99 1013.9
20260905065402 66 0 0.0 0.0 0.00 0.47 0.00 99 1013.9
20260905065306 66 0 0.0 0.0 0.00 0.47 0.00 99 1013.9
20260905065203 66 0 0.0 0.0 0.00 0.47 0.00 99 1014.0
20260905065104 67 0 0.0 0.0 0.00 0.47 0.00 99 1013.9
20260905065003 67 0 0.0 0.0 0.00 0.47 0.00 99 1013.7
20260905064904 67 0 0.0 0.0 0.00 0.47 0.00 99 1014.1
20260905064825 67 0 0.0 0.0 0.00 0.47 0.00 99 1013.9
20260905064703 67 0 0.0 0.0 0.00 0.47 0.00 99 1014.0
20260905064603 67 0 0.0 0.0 0.00 0.47 0.00 99 1014.0
20260905064503 67 0 0.0 0.0 0.00 0.47 0.00 99 1013.9
20260905064403 67 0 0.0 0.0 0.00 0.47 0.00 99 1014.0
20260905064304 67 0 0.0 0.0 0.00 0.47 0.00 99 1014.1
20260905064224 67 0 0.0 0.0 0.00 0.47 0.00 99 1014.1
20260905064103 67 0 0.0 0.0 0.00 0.47 0.00 99 1014.1
20260905064003 67 0 0.0 0.0 0.00 0.47 0.00 99 1014.2
20260905063904 67 0 0.0 0.0 0.00 0.47 0.00 99 1014.3
20260905063803 67 0 0.0 0.0 0.00 0.47 0.00 99 1014.1
20260905063704 67 0 0.0 0.0 0.00 0.47 0.00 99 1014.4
20260905063603 67 0 0.0 0.0 0.00 0.47 0.00 99 1014.2
20260905063504 67 0 0.0 0.0 0.00 0.47 0.00 99 1014.0
20260905063404 67 0 0.0 0.0 0.00 0.47 0.00 99 1014.1
20260905063303 67 0 0.0 0.0 0.00 0.47 0.00 99 1014.3
20260905063203 67 0 0.0 0.0 0.00 0.47 0.00 99 1014.2
20260905063103 67 0 0.0 0.0 0.00 0.47 0.00 99 1014.4
20260905063004 67 0 0.0 0.0 0.00 0.47 0.00 99 1014.4
20260905062904 67 0 0.0 0.0 0.00 0.47 0.00 99 1014.1
20260905062803 67 0 0.0 0.0 0.00 0.47 0.00 99 1014.3
20260905062703 67 0 0.0 0.0 0.00 0.47 0.00 99 1014.4
20260905062604 67 0 0.0 0.0 0.00 0.47 0.00 99 1014.4
20260905062503 67 0 0.0 0.0 0.00 0.47 0.00 99 1014.4
20260905062404 67 0 0.0 0.0 0.00 0.47 0.00 99 1014.3
20260905062305 67 0 0.0 0.0 0.00 0.47 0.00 99 1014.4
20260905062203 67 0 0.0 0.0 0.00 0.47 0.00 99 1014.3
20260905062103 67 0 0.0 0.0 0.00 0.47 0.00 99 1014.5
20260905062003 67 0 0.0 0.0 0.00 0.47 0.00 99 1014.5
20260905061903 67 0 0.0 0.0 0.00 0.47 0.00 99 1014.3
20260905061804 67 0 0.0 0.0 0.00 0.47 0.00 99 1014.3
20260905061702 67 0 0.0 0.0 0.00 0.47 0.00 99 1014.4
20260905061604 67 0 0.0 0.0 0.00 0.47 0.00 99 1014.5
20260905061503 67 0 0.0 0.0 0.00 0.47 0.00 99 1014.6
20260905061404 67 0 0.0 0.0 0.00 0.47 0.00 99 1014.6
20260905061324 67 0 0.0 0.0 0.00 0.47 0.00 99 1014.6
20260905061203 67 0 0.0 0.0 0.00 0.47 0.00 99 1014.6
20260905061104 67 0 0.0 0.0 0.00 0.47 0.00 99 1014.5
20260905061003 67 0 0.0 0.0 0.00 0.47 0.00 99 1014.7
20260905060903 67 0 0.0 0.0 0.00 0.47 0.00 99 1014.6
20260905060803 67 0 0.0 0.0 0.00 0.47 0.00 99 1014.7
20260905060704 67 0 0.0 0.0 0.00 0.47 0.00 99 1014.7
20260905060624 67 0 0.0 0.0 0.00 0.47 0.00 99 1014.7
20260905060503 67 0 0.0 0.0 0.00 0.47 0.00 99 1014.8
20260905060403 67 0 0.0 0.0 0.00 0.47 0.00 99 1014.8
20260905060303 67 0 0.0 0.0 0.00 0.47 0.00 99 1014.8
20260905060204 67 0 0.0 0.0 0.00 0.47 0.00 99 1014.8
20260905060003 67 0 0.0 0.0 0.00 0.47 0.00 99 1014.8
20260905055903 67 0 0.0 0.0 0.00 0.47 0.00 99 1014.8
20260905055804 67 0 0.0 0.0 0.00 0.47 0.00 99 1014.8
20260905055704 67 0 0.0 0.0 0.00 0.47 0.00 99 1014.8
20260905055604 67 0 0.0 0.0 0.00 0.47 0.00 99 1014.9
20260905055503 67 0 0.0 0.0 0.00 0.47 0.00 99 1014.8
20260905055404 67 0 0.0 0.0 0.00 0.47 0.00 99 1014.8
20260905055306 67 0 0.0 0.0 0.00 0.47 0.00 99 1014.7
20260905055203 67 0 0.0 0.0 0.00 0.47 0.00 99 1014.8
20260905055124 67 0 0.0 0.0 0.00 0.47 0.00 99 1014.9
20260905055003 67 0 0.0 0.0 0.00 0.47 0.00 99 1014.8
20260905054904 67 0 0.0 0.0 0.00 0.47 0.00 99 1014.9
20260905054803 67 0 0.0 0.0 0.00 0.47 0.00 99 1014.8
20260905054704 67 0 0.0 0.0 0.00 0.47 0.00 99 1014.8
20260905054624 67 0 0.0 0.0 0.00 0.47 0.00 99 1014.7
20260905054524 67 0 0.0 0.0 0.00 0.47 0.00 99 1014.8
20260905054404 67 0 0.0 0.0 0.00 0.47 0.00 99 1014.9
20260905054304 67 0 0.0 0.0 0.00 0.47 0.00 99 1014.9
20260905054204 67 0 0.0 0.0 0.00 0.47 0.00 99 1015.0
20260905054103 67 0 0.0 0.0 0.00 0.47 0.00 99 1015.0
20260905054003 67 0 0.0 0.0 0.00 0.47 0.00 99 1014.9
20260905053903 67 0 0.0 0.0 0.00 0.47 0.00 99 1015.0
20260905053804 67 0 0.0 0.0 0.00 0.47 0.00 99 1014.9
20260905053704 67 0 0.0 0.0 0.00 0.47 0.00 99 1015.0
20260905053603 67 0 0.0 0.0 0.00 0.47 0.00 99 1015.0
20260905053503 67 0 0.0 0.0 0.00 0.47 0.00 99 1014.9
20260905053403 67 0 0.0 0.0 0.00 0.47 0.00 99 1015.1
20260905053304 67 0 0.0 0.0 0.00 0.47 0.00 99 1015.1
20260905053225 67 0 0.0 0.0 0.00 0.47 0.00 99 1015.1
20260905053103 67 0 0.0 0.0 0.00 0.47 0.00 99 1015.3
20260905053002 67 0 0.0 0.0 0.00 0.47 0.00 99 1015.2
20260905052903 67 0 0.0 0.0 0.00 0.47 0.00 99 1015.2
20260905052804 67 0 0.0 0.0 0.00 0.47 0.00 99 1015.2
20260905052703 67 0 0.0 0.0 0.00 0.47 0.00 99 1015.2
20260905052603 67 0 0.0 0.0 0.00 0.47 0.00 99 1015.0
20260905052525 67 0 0.0 0.0 0.00 0.47 0.00 99 1015.0
20260905052403 67 0 0.0 0.0 0.00 0.47 0.00 99 1015.0
20260905052306 68 0 0.0 0.0 0.00 0.47 0.00 99 1015.0
20260905052204 68 0 0.0 0.0 0.00 0.47 0.00 99 1015.2
20260905052124 68 0 0.0 0.0 0.00 0.47 0.00 99 1015.3
20260905052003 68 0 0.0 0.0 0.00 0.47 0.00 99 1015.2
20260905051924 68 0 0.0 0.0 0.00 0.47 0.00 99 1015.0
20260905051804 68 0 0.0 0.0 0.00 0.47 0.00 99 1015.0
20260905051725 68 124 0.0 1.0 0.00 0.47 0.00 99 1015.2
20260905051603 68 129 0.0 1.0 0.00 0.47 0.00 99 1015.2
20260905051504 68 129 0.0 1.0 0.00 0.47 0.00 99 1015.1
20260905051403 68 129 0.0 1.0 0.00 0.47 0.00 99 1015.2
20260905051325 68 129 0.0 1.0 0.00 0.47 0.00 99 1015.2
20260905051224 68 129 0.0 1.0 0.00 0.47 0.00 99 1015.1
20260905051103 68 129 0.0 1.0 0.00 0.47 0.00 99 1015.5
20260905051003 68 129 0.0 1.0 0.00 0.47 0.00 99 1015.3
20260905050925 68 129 0.0 1.0 0.00 0.47 0.00 99 1015.3
20260905050824 68 129 0.0 1.0 0.00 0.47 0.00 99 1015.2
20260905050704 68 130 0.0 1.0 0.00 0.47 0.00 99 1015.4
20260905050603 68 127 0.0 1.0 0.00 0.47 0.00 99 1015.2
20260905050503 68 127 0.0 1.0 0.00 0.47 0.00 99 1015.4
20260905050404 68 127 0.0 1.0 0.00 0.47 0.00 99 1015.2
20260905050303 68 127 0.0 1.0 0.00 0.47 0.00 99 1015.2
20260905050224 67 127 0.0 1.0 0.00 0.47 0.00 99 1015.1
20260905050124 67 132 0.0 1.0 0.00 0.47 0.00 99 1015.3
20260905050004 68 0 0.0 0.0 0.00 0.47 0.00 99 1015.1
20260905045903 68 0 0.0 0.0 0.00 0.47 0.00 99 1015.2
20260905045804 67 0 0.0 0.0 0.00 0.47 0.00 99 1015.2
20260905045703 67 0 0.0 0.0 0.00 0.47 0.00 99 1015.0
20260905045603 67 0 0.0 0.0 0.00 0.47 0.00 99 1015.2
20260905045504 68 0 0.0 0.0 0.00 0.47 0.00 99 1015.1
20260905045403 68 0 0.0 0.0 0.00 0.47 0.00 99 1015.1
20260905045305 68 0 0.0 0.0 0.00 0.47 0.00 99 1015.1
20260905045224 68 0 0.0 0.0 0.00 0.47 0.00 99 1015.2
20260905045104 67 0 0.0 0.0 0.00 0.47 0.00 99 1015.1
20260905045024 67 0 0.0 0.0 0.00 0.47 0.00 99 1015.2
20260905044903 67 0 0.0 0.0 0.00 0.47 0.00 99 1015.3
20260905044803 67 0 0.0 0.0 0.00 0.47 0.00 99 1015.3
20260905044703 67 0 0.0 0.0 0.00 0.47 0.00 99 1015.2
20260905044604 67 0 0.0 0.0 0.00 0.47 0.00 99 1015.2
20260905044503 67 0 0.0 0.0 0.00 0.47 0.00 99 1015.0
20260905044403 67 0 0.0 0.0 0.00 0.47 0.00 99 1015.1
20260905044303 67 0 0.0 0.0 0.00 0.47 0.00 99 1015.1
20260905044203 67 0 0.0 0.0 0.00 0.47 0.00 99 1015.2
20260905044103 67 0 0.0 0.0 0.00 0.47 0.00 99 1015.4
20260905044003 67 0 0.0 0.0 0.00 0.47 0.00 99 1015.3
20260905043904 67 0 0.0 0.0 0.00 0.47 0.00 99 1015.3
20260905043804 67 0 0.0 0.0 0.00 0.47 0.00 99 1015.4
20260905043703 67 0 0.0 0.0 0.00 0.47 0.00 99 1015.2
20260905043603 67 0 0.0 0.0 0.00 0.47 0.00 99 1015.2
20260905043503 67 0 0.0 0.0 0.00 0.47 0.00 99 1015.2
20260905043403 67 0 0.0 0.0 0.00 0.47 0.00 99 1015.4
20260905043302 67 0 0.0 0.0 0.00 0.47 0.00 99 1015.4
20260905043224 67 0 0.0 0.0 0.00 0.47 0.00 99 1015.4
20260905043104 67 0 0.0 0.0 0.00 0.47 0.00 99 1015.5
20260905043003 67 0 0.0 0.0 0.00 0.47 0.00 99 1015.5
20260905042903 67 0 0.0 0.0 0.00 0.47 0.00 99 1015.3
20260905042824 67 0 0.0 0.0 0.00 0.47 0.00 99 1015.3
20260905042724 67 0 0.0 0.0 0.00 0.47 0.00 99 1015.3
20260905042603 67 0 0.0 0.0 0.00 0.47 0.00 99 1015.5
20260905042525 67 0 0.0 0.0 0.00 0.47 0.00 99 1015.3
20260905042403 67 0 0.0 0.0 0.00 0.47 0.00 99 1015.3
20260905042306 67 0 0.0 0.0 0.00 0.47 0.00 99 1015.2
20260905042203 67 0 0.0 0.0 0.00 0.47 0.00 99 1015.1
20260905042103 67 0 0.0 0.0 0.00 0.47 0.00 99 1015.1
20260905042003 67 0 0.0 0.0 0.00 0.47 0.00 99 1015.2
20260905041925 67 0 0.0 0.0 0.00 0.47 0.00 99 1015.1
20260905041804 67 0 0.0 0.0 0.00 0.47 0.00 99 1015.1
20260905041703 67 0 0.0 0.0 0.00 0.47 0.00 99 1015.1
20260905041602 67 0 0.0 0.0 0.00 0.47 0.00 99 1015.1
20260905041503 67 0 0.0 0.0 0.00 0.47 0.00 99 1015.3
20260905041403 67 0 0.0 0.0 0.00 0.47 0.00 99 1015.2
20260905041303 67 0 0.0 0.0 0.00 0.47 0.00 99 1015.1
20260905041203 67 0 0.0 0.0 0.00 0.47 0.00 99 1015.4
20260905041124 67 0 0.0 0.0 0.00 0.47 0.00 99 1015.4
20260905041004 67 0 0.0 0.0 0.00 0.47 0.00 99 1015.1
20260905040903 67 0 0.0 0.0 0.00 0.47 0.00 99 1015.2
20260905040803 67 0 0.0 0.0 0.00 0.47 0.00 99 1015.2
20260905040704 67 0 0.0 0.0 0.00 0.47 0.00 99 1015.3
20260905040603 67 0 0.0 0.0 0.00 0.47 0.00 99 1015.2
20260905040525 67 0 0.0 0.0 0.00 0.47 0.00 99 1015.3
20260905040403 67 0 0.0 0.0 0.00 0.47 0.00 99 1015.3
20260905040303 67 0 0.0 0.0 0.00 0.47 0.00 99 1015.2
20260905040203 67 0 0.0 0.0 0.00 0.47 0.00 99 1015.0
20260905040003 67 0 0.0 0.0 0.00 0.47 0.00 99 1015.1
20260905035903 67 0 0.0 0.0 0.00 0.47 0.47 99 1015.0
20260905035802 67 0 0.0 0.0 0.00 0.47 0.47 99 1015.2
20260905035704 67 0 0.0 0.0 0.00 0.47 0.47 99 1015.3
20260905035603 67 0 0.0 0.0 0.00 0.47 0.47 99 1015.3
20260905035503 67 0 0.0 0.0 0.00 0.47 0.47 99 1015.2
20260905035425 67 0 0.0 0.0 0.00 0.47 0.47 99 1015.1
20260905035306 67 0 0.0 0.0 0.00 0.47 0.47 99 1015.4
20260905035203 67 0 0.0 0.0 0.00 0.47 0.47 99 1015.0
20260905035103 67 0 0.0 0.0 0.00 0.47 0.47 99 1015.2
20260905035004 67 0 0.0 0.0 0.00 0.47 0.47 99 1015.0
20260905034924 67 0 0.0 0.0 0.00 0.47 0.47 99 1015.3
20260905034803 67 0 0.0 0.0 0.00 0.47 0.47 99 1015.3
20260905034703 67 0 0.0 0.0 0.00 0.47 0.47 99 1015.2
20260905034604 67 0 0.0 0.0 0.00 0.47 0.47 99 1015.1
20260905034504 67 0 0.0 0.0 0.00 0.47 0.47 99 1015.2
20260905034404 67 0 0.0 0.0 0.00 0.47 0.47 99 1015.1
20260905034303 67 0 0.0 0.0 0.00 0.47 0.47 99 1015.2
20260905034203 67 0 0.0 0.0 0.00 0.47 0.47 99 1015.2
20260905034125 67 0 0.0 0.0 0.00 0.47 0.47 99 1015.2
20260905034024 67 0 0.0 0.0 0.00 0.47 0.47 99 1015.4
20260905033903 67 0 0.0 0.0 0.00 0.47 0.47 99 1015.3
20260905033803 67 0 0.0 0.0 0.00 0.47 0.47 99 1015.2
20260905033704 67 0 0.0 0.0 0.00 0.47 0.47 99 1015.2
20260905033603 67 0 0.0 0.0 0.00 0.47 0.47 99 1015.2
20260905033504 67 0 0.0 0.0 0.00 0.47 0.47 99 1015.5
20260905033403 67 0 0.0 0.0 0.00 0.47 0.47 99 1015.4
20260905033304 67 0 0.0 0.0 0.00 0.47 0.47 99 1015.4
20260905033224 67 0 0.0 0.0 0.00 0.47 0.47 99 1015.4
20260905033104 67 0 0.0 0.0 0.00 0.47 0.47 99 1015.5
20260905033006 67 0 0.0 0.0 0.00 0.47 0.47 99 1015.6
20260905032924 67 0 0.0 0.0 0.00 0.47 0.47 99 1015.4
20260905032803 67 0 0.0 0.0 0.00 0.47 0.47 99 1015.4
20260905032703 68 0 0.0 0.0 0.00 0.47 0.47 99 1015.4
20260905032604 68 0 0.0 0.0 0.00 0.47 0.47 99 1015.3
20260905032503 68 0 0.0 0.0 0.00 0.47 0.47 99 1015.1
20260905032403 68 0 0.0 0.0 0.00 0.47 0.47 99 1015.2
20260905032325 68 0 0.0 0.0 0.00 0.47 0.47 99 1015.3
20260905032204 68 0 0.0 0.0 0.00 0.47 0.47 99 1015.1
20260905032103 68 0 0.0 0.0 0.00 0.47 0.47 99 1015.1
20260905032003 68 0 0.0 0.0 0.00 0.47 0.47 99 1015.1
20260905031904 68 0 0.0 0.0 0.00 0.47 0.47 99 1015.0
20260905031803 68 0 0.0 0.0 0.00 0.47 0.47 99 1015.0
20260905031704 68 0 0.0 0.0 0.00 0.47 0.47 99 1015.0
20260905031603 68 0 0.0 0.0 0.00 0.47 0.47 99 1015.1
20260905031504 68 0 0.0 0.0 0.00 0.47 0.47 99 1015.2
20260905031403 68 0 0.0 0.0 0.00 0.47 0.47 99 1015.0
20260905031324 68 0 0.0 0.0 0.00 0.48 0.47 99 1015.1
20260905031202 68 0 0.0 0.0 0.00 0.49 0.47 99 1015.0
20260905031103 68 0 0.0 0.0 0.00 0.51 0.47 99 1015.1
20260905031002 68 0 0.0 0.0 0.00 0.51 0.47 99 1015.1
20260905030903 68 0 0.0 0.0 0.00 0.51 0.47 99 1015.1
20260905030803 68 0 0.0 0.0 0.00 0.51 0.47 99 1015.1
20260905030704 68 0 0.0 0.0 0.00 0.51 0.47 99 1015.0
20260905030603 68 0 0.0 0.0 0.00 0.51 0.47 99 1015.1
20260905030503 68 0 0.0 0.0 0.00 0.51 0.47 99 1015.1
20260905030404 68 0 0.0 0.0 0.00 0.51 0.47 99 1015.2
20260905030303 68 0 0.0 0.0 0.00 0.51 0.47 98 1015.1
20260905030203 68 0 0.0 0.0 0.00 0.51 0.47 99 1015.1
20260905030003 68 0 0.0 0.0 0.00 0.51 0.47 98 1015.1
20260905025903 68 0 0.0 0.0 0.00 0.51 0.47 98 1015.1
20260905025803 68 0 0.0 0.0 0.00 0.51 0.47 99 1015.0
20260905025704 68 0 0.0 0.0 0.00 0.51 0.47 99 1014.9
20260905025625 68 0 0.0 0.0 0.00 0.51 0.47 98 1015.1
20260905025504 68 0 0.0 0.0 0.00 0.51 0.47 98 1015.0
20260905025425 68 0 0.0 0.0 0.00 0.51 0.47 98 1015.0
20260905025306 68 0 0.0 0.0 0.00 0.51 0.47 98 1015.2
20260905025203 68 0 0.0 0.0 0.00 0.51 0.47 98 1015.0
20260905025124 68 0 0.0 0.0 0.00 0.51 0.47 98 1015.0
20260905025004 68 0 0.0 0.0 0.00 0.51 0.47 98 1015.1
20260905024904 68 0 0.0 0.0 0.00 0.51 0.47 98 1015.2
20260905024824 68 0 0.0 0.0 0.00 0.51 0.47 98 1015.1
20260905024702 68 0 0.0 0.0 0.00 0.51 0.47 98 1015.0
20260905024624 68 0 0.0 0.0 0.00 0.51 0.47 98 1015.0
20260905024503 68 0 0.0 0.0 0.00 0.51 0.47 98 1015.2
20260905024403 68 0 0.0 0.0 0.00 0.51 0.47 98 1015.4
20260905024324 68 0 0.0 0.0 0.00 0.51 0.47 98 1015.4
20260905024203 68 0 0.0 0.0 0.00 0.51 0.47 98 1015.0
20260905024104 68 0 0.0 0.0 0.00 0.51 0.47 98 1015.3
20260905024025 68 0 0.0 0.0 0.00 0.51 0.47 98 1015.3
20260905023903 69 0 0.0 0.0 0.00 0.51 0.47 98 1015.3
20260905023803 69 0 0.0 0.0 0.00 0.51 0.47 98 1015.3
20260905023703 69 0 0.0 0.0 0.00 0.51 0.47 98 1015.3
20260905023603 69 0 0.0 0.0 0.00 0.51 0.47 98 1015.6
20260905023502 69 0 0.0 0.0 0.00 0.51 0.47 98 1015.2
20260905023404 69 0 0.0 0.0 0.00 0.51 0.47 98 1015.2
20260905023303 69 0 0.0 0.0 0.00 0.51 0.47 98 1015.2
20260905023204 69 0 0.0 0.0 0.00 0.51 0.47 98 1015.2
20260905023104 69 0 0.0 0.0 0.00 0.51 0.47 98 1015.1
20260905023003 69 0 0.0 0.0 0.00 0.51 0.47 98 1015.2
20260905022903 69 0 0.0 0.0 0.00 0.51 0.47 98 1015.2
20260905022804 69 0 0.0 0.0 0.00 0.51 0.47 98 1015.3
20260905022704 69 0 0.0 0.0 0.00 0.51 0.47 98 1015.1
20260905022604 69 0 0.0 0.0 0.00 0.51 0.47 98 1015.2
20260905022504 69 0 0.0 0.0 0.00 0.51 0.47 98 1015.3
20260905022403 69 0 0.0 0.0 0.00 0.51 0.47 98 1015.3
20260905022305 69 0 0.0 0.0 0.00 0.51 0.47 98 1015.3
20260905022203 69 0 0.0 0.0 0.00 0.51 0.47 98 1015.3
20260905022103 69 0 0.0 0.0 0.00 0.51 0.47 98 1015.4
20260905022003 69 0 0.0 0.0 0.00 0.51 0.47 98 1015.3
20260905021906 69 0 0.0 0.0 0.00 0.51 0.47 98 1015.3
20260905021803 69 0 0.0 0.0 0.00 0.51 0.47 98 1015.2
20260905021703 69 0 0.0 0.0 0.00 0.51 0.47 98 1015.3
20260905021624 69 0 0.0 0.0 0.00 0.51 0.47 98 1015.4
20260905021524 69 0 0.0 0.0 0.00 0.51 0.47 98 1015.2
20260905021403 69 0 0.0 0.0 0.00 0.51 0.47 98 1015.2
20260905021303 69 0 0.0 0.0 0.00 0.51 0.47 98 1015.3
20260905021203 69 0 0.0 0.0 0.00 0.51 0.47 98 1015.3
20260905021102 69 0 0.0 0.0 0.00 0.51 0.47 98 1015.1
20260905021003 69 0 0.0 0.0 0.00 0.51 0.47 98 1015.2
20260905020903 69 0 0.0 0.0 0.00 0.51 0.47 98 1015.1
20260905020804 69 0 0.0 0.0 0.00 0.51 0.47 98 1015.3
20260905020725 69 0 0.0 0.0 0.00 0.51 0.47 98 1015.2
20260905020603 69 0 0.0 0.0 0.00 0.51 0.47 98 1015.0
20260905020504 69 0 0.0 0.0 0.00 0.51 0.47 98 1015.1
20260905020403 69 0 0.0 0.0 0.00 0.51 0.47 98 1015.2
20260905020303 69 0 0.0 0.0 0.00 0.51 0.47 98 1015.2
20260905020203 69 0 0.0 0.0 0.00 0.51 0.47 98 1015.2
20260905020004 69 0 0.0 0.0 0.00 0.51 0.47 98 1015.3
20260905015904 69 0 0.0 0.0 0.00 0.51 0.47 98 1015.5
20260905015825 69 0 0.0 0.0 0.00 0.51 0.47 98 1015.3
20260905015724 69 0 0.0 0.0 0.00 0.51 0.47 98 1015.3
20260905015604 69 0 0.0 0.0 0.00 0.51 0.47 98 1015.3
20260905015504 69 0 0.0 0.0 0.00 0.51 0.47 98 1015.4
20260905015403 69 0 0.0 0.0 0.00 0.51 0.47 98 1015.3
20260905015306 69 0 0.0 0.0 0.00 0.51 0.47 98 1015.3
20260905015202 69 0 0.0 0.0 0.00 0.51 0.47 98 1015.2
20260905015104 69 0 0.0 0.0 0.00 0.51 0.47 98 1015.3
20260905015004 70 0 0.0 0.0 0.00 0.51 0.47 98 1015.4
20260905014924 70 0 0.0 0.0 0.00 0.51 0.47 98 1015.4
20260905014803 70 0 0.0 0.0 0.00 0.51 0.47 98 1015.3
20260905014703 70 0 0.0 0.0 0.00 0.51 0.47 98 1015.2
20260905014624 70 0 0.0 0.0 0.00 0.51 0.47 98 1015.2
20260905014524 70 0 0.0 0.0 0.00 0.51 0.47 98 1015.2
20260905014403 70 0 0.0 0.0 0.00 0.51 0.47 98 1015.4
20260905014303 70 0 0.0 0.0 0.00 0.51 0.47 98 1015.4
20260905014203 70 0 0.0 0.0 0.00 0.51 0.47 98 1015.3
20260905014103 70 0 0.0 0.0 0.00 0.51 0.47 98 1015.4
20260905014004 70 0 0.0 0.0 0.00 0.51 0.47 98 1015.4
20260905013925 70 0 0.0 0.0 0.00 0.51 0.47 98 1015.3
20260905013803 70 0 0.0 0.0 0.00 0.51 0.47 98 1015.3
20260905013703 70 0 0.0 0.0 0.00 0.51 0.47 98 1015.2
20260905013603 69 0 0.0 0.0 0.00 0.51 0.47 98 1015.2
20260905013503 69 0 0.0 0.0 0.00 0.51 0.47 98 1015.3
20260905013424 69 0 0.0 0.0 0.00 0.51 0.47 98 1015.4
20260905013304 69 0 0.0 0.0 0.00 0.51 0.47 97 1015.4
20260905013204 69 0 0.0 0.0 0.00 0.51 0.47 97 1015.3
20260905013103 69 0 0.0 0.0 0.00 0.51 0.47 97 1015.6
20260905013025 69 0 0.0 0.0 0.00 0.51 0.47 97 1015.4
20260905012924 69 0 0.0 0.0 0.00 0.51 0.47 97 1015.3
20260905012803 70 0 0.0 0.0 0.00 0.51 0.47 97 1015.5
20260905012703 70 0 0.0 0.0 0.00 0.51 0.47 97 1015.4
20260905012603 70 0 0.0 0.0 0.00 0.51 0.47 97 1015.4
20260905012503 70 0 0.0 0.0 0.00 0.51 0.47 97 1015.4
20260905012403 70 0 0.0 0.0 0.00 0.51 0.47 97 1015.5
20260905012306 70 0 0.0 0.0 0.00 0.51 0.47 97 1015.3
20260905012204 70 0 0.0 0.0 0.00 0.51 0.47 97 1015.4
20260905012103 70 0 0.0 0.0 0.00 0.51 0.47 97 1015.4
20260905012002 70 0 0.0 0.0 0.00 0.51 0.47 97 1015.3
20260905011924 70 0 0.0 0.0 0.00 0.51 0.47 97 1015.4
20260905011824 70 0 0.0 0.0 0.00 0.51 0.47 97 1015.3
20260905011703 70 0 0.0 0.0 0.00 0.51 0.47 97 1015.3
20260905011604 70 0 0.0 0.0 0.00 0.51 0.47 97 1015.5
20260905011503 70 0 0.0 0.0 0.00 0.51 0.47 97 1015.4
20260905011404 70 0 0.0 0.0 0.00 0.51 0.47 97 1015.3
20260905011324 70 0 0.0 0.0 0.00 0.51 0.47 97 1015.5
20260905011224 70 0 0.0 0.0 0.00 0.51 0.47 97 1015.4
20260905011124 70 0 0.0 0.0 0.00 0.51 0.47 97 1015.5
20260905011024 70 0 0.0 0.0 0.00 0.51 0.47 97 1015.4
20260905010904 70 0 0.0 0.0 0.00 0.51 0.47 97 1015.3
20260905010803 70 0 0.0 0.0 0.00 0.51 0.47 97 1015.3
20260905010703 70 0 0.0 0.0 0.00 0.51 0.47 97 1015.4
20260905010604 70 0 0.0 0.0 0.00 0.51 0.47 97 1015.3
20260905010503 70 0 0.0 0.0 0.00 0.51 0.47 97 1015.3
20260905010424 70 0 0.0 0.0 0.00 0.51 0.47 97 1015.2
20260905010325 70 0 0.0 0.0 0.00 0.51 0.47 97 1015.4
20260905010203 70 0 0.0 0.0 0.00 0.51 0.47 97 1015.3
20260905010104 70 0 0.0 0.0 0.00 0.51 0.47 97 1015.2
20260905010004 70 0 0.0 0.0 0.00 0.51 0.47 97 1015.2
20260905005903 70 0 0.0 0.0 0.00 0.51 0.47 97 1015.2
20260905005824 70 0 0.0 0.0 0.00 0.51 0.47 97 1015.2
20260905005702 70 0 0.0 0.0 0.00 0.51 0.47 96 1015.1
20260905005603 70 0 0.0 0.0 0.00 0.51 0.47 96 1015.2
20260905005503 70 0 0.0 0.0 0.00 0.51 0.47 96 1015.3
20260905005403 70 0 0.0 0.0 0.00 0.51 0.47 96 1015.2
20260905005306 70 0 0.0 0.0 0.00 0.51 0.47 96 1015.3
20260905005203 70 0 0.0 0.0 0.00 0.51 0.47 96 1015.2
20260905005103 70 0 0.0 0.0 0.00 0.51 0.47 96 1015.1
20260905005004 70 0 0.0 0.0 0.00 0.51 0.47 96 1015.2
20260905004909 70 0 0.0 0.0 0.00 0.51 0.47 96 1015.2
20260905004803 70 0 0.0 0.0 0.00 0.51 0.47 96 1014.8
20260905004703 70 0 0.0 0.0 0.00 0.51 0.47 96 1015.2
20260905004603 70 0 0.0 0.0 0.00 0.51 0.47 96 1015.1
20260905004525 70 0 0.0 0.0 0.00 0.51 0.47 96 1015.1
20260905004403 70 0 0.0 0.0 0.00 0.51 0.47 96 1015.3
20260905004304 70 0 0.0 0.0 0.00 0.51 0.47 96 1015.2
20260905004237 70 0 0.0 0.0 0.00 0.51 0.47 96 1015.2
20260905004104 70 0 0.0 0.0 0.00 0.51 0.47 96 1015.2
20260905004004 71 0 0.0 0.0 0.00 0.51 0.47 96 1015.2
20260905003903 71 0 0.0 0.0 0.00 0.51 0.47 96 1015.1
20260905003803 71 0 0.0 0.0 0.00 0.51 0.47 96 1015.1
20260905003704 71 0 0.0 0.0 0.00 0.51 0.47 96 1015.1
20260905003604 71 0 0.0 0.0 0.00 0.51 0.47 96 1015.2
20260905003504 71 0 0.0 0.0 0.00 0.51 0.47 96 1015.1
20260905003404 71 0 0.0 0.0 0.00 0.51 0.47 96 1015.1
20260905003304 71 0 0.0 0.0 0.00 0.51 0.47 96 1015.3
20260905003225 71 0 0.0 0.0 0.00 0.51 0.47 96 1015.1
20260905003124 71 0 0.0 0.0 0.00 0.51 0.47 95 1015.2
20260905003024 71 0 0.0 0.0 0.00 0.51 0.47 95 1015.3
20260905002904 71 0 0.0 0.0 0.00 0.51 0.47 95 1015.2
20260905002803 71 0 0.0 0.0 0.00 0.51 0.47 95 1015.2
20260905002703 71 0 0.0 0.0 0.00 0.51 0.47 95 1015.1
20260905002625 71 0 0.0 0.0 0.00 0.51 0.47 95 1015.2
20260905002503 71 0 0.0 0.0 0.00 0.51 0.47 95 1015.2
20260905002403 71 0 0.0 0.0 0.00 0.51 0.47 95 1015.1
20260905002306 71 0 0.0 0.0 0.00 0.51 0.47 95 1015.1
20260905002204 71 0 0.0 0.0 0.00 0.51 0.47 95 1015.3
20260905002103 71 0 0.0 0.0 0.00 0.51 0.47 95 1015.2
20260905002003 71 0 0.0 0.0 0.00 0.51 0.47 95 1015.2
20260905001904 71 0 0.0 0.0 0.00 0.51 0.47 95 1015.1
20260905001804 71 0 0.0 0.0 0.00 0.51 0.47 95 1015.2
20260905001703 71 0 0.0 0.0 0.00 0.51 0.47 94 1014.9
20260905001603 72 0 0.0 0.0 0.00 0.51 0.47 94 1015.0
20260905001502 72 0 0.0 0.0 0.00 0.51 0.47 94 1015.0
20260905001424 72 0 0.0 0.0 0.00 0.51 0.47 94 1015.2
20260905001304 72 0 0.0 0.0 0.00 0.51 0.47 94 1015.0
20260905001225 72 0 0.0 0.0 0.00 0.51 0.47 94 1015.3
20260905001104 72 0 0.0 0.0 0.00 0.51 0.47 94 1015.2
20260905001004 72 0 0.0 0.0 0.00 0.51 0.47 94 1015.3
20260905000903 72 0 0.0 0.0 0.00 0.52 0.47 94 1015.0
20260905000804 72 0 0.0 0.0 0.00 0.52 0.47 93 1015.2
20260905000703 72 0 0.0 0.0 0.00 0.52 0.47 93 1015.2
20260905000603 72 0 0.0 0.0 0.00 0.52 0.47 93 1015.1
20260905000524 72 0 0.0 0.0 0.00 0.52 0.47 93 1015.0
20260905000403 72 0 0.0 0.0 0.00 0.52 0.47 93 1015.1
20260905000303 72 0 0.0 0.0 0.00 0.52 0.47 93 1015.4
20260905000226 72 0 0.0 0.0 0.00 0.52 0.47 93 1015.1
20260905000004 73 0 0.0 0.0 0.00 0.52 0.47 93 1015.1
20260904235925 73 0 0.0 0.0 0.00 0.52 0.47 93 1015.0
20260904235803 73 0 0.0 0.0 0.00 0.52 0.47 92 1015.0
20260904235724 73 0 0.0 0.0 0.00 0.52 0.47 92 1015.1
20260904235603 73 0 0.0 0.0 0.00 0.53 0.47 92 1015.0
20260904235502 73 0 0.0 0.0 0.00 0.53 0.47 92 1015.0
20260904235403 74 0 0.0 0.0 0.00 0.53 0.47 92 1015.0
20260904235306 74 0 0.0 0.0 0.00 0.53 0.47 91 1015.1
20260904235224 74 0 0.0 0.0 0.00 0.53 0.47 91 1015.1
20260904235103 74 0 0.0 0.0 0.00 0.53 0.47 90 1015.2
20260904235003 74 0 0.0 0.0 0.00 0.53 0.47 91 1015.2
20260904234903 74 0 0.0 0.0 0.00 0.53 0.47 91 1015.6
20260904234804 74 0 0.0 0.0 0.00 0.53 0.47 90 1015.2
20260904234702 74 0 0.0 0.0 0.00 0.53 0.47 90 1015.3
20260904234603 74 0 0.0 0.0 0.00 0.53 0.47 90 1015.3
20260904234503 74 0 0.0 0.0 0.00 0.53 0.47 90 1015.1
20260904234403 74 0 0.0 0.0 0.00 0.53 0.47 90 1015.2
20260904234325 74 0 0.0 0.0 0.00 0.53 0.47 90 1015.2
20260904234203 74 0 0.0 0.0 0.00 0.53 0.47 91 1015.4
20260904234103 74 0 0.0 0.0 0.00 0.54 0.47 90 1015.2
20260904234003 74 136 0.0 1.0 0.00 0.54 0.47 90 1015.3
20260904233903 74 159 0.0 1.0 0.00 0.54 0.47 90 1015.2
20260904233804 74 155 0.0 1.0 0.00 0.54 0.47 91 1015.1
20260904233704 74 155 0.0 1.0 0.00 0.54 0.47 91 1015.1
20260904233603 74 141 0.0 1.0 0.00 0.54 0.47 91 1015.3
20260904233504 74 141 0.0 1.0 0.00 0.55 0.47 91 1015.3
20260904233403 74 137 0.0 1.0 0.00 0.55 0.47 91 1015.3
20260904233304 74 137 0.0 1.0 0.00 0.55 0.47 91 1015.3
20260904233203 74 137 0.0 1.0 0.00 0.55 0.47 91 1015.6
20260904233103 74 137 0.0 1.0 0.00 0.55 0.47 91 1015.7
20260904233004 74 137 0.0 1.0 0.00 0.56 0.47 91 1015.7
20260904232904 74 124 0.0 1.0 0.00 0.56 0.47 92 1015.6
20260904232804 74 98 0.0 1.0 0.00 0.56 0.47 92 1015.5
20260904232704 74 90 0.0 1.0 0.00 0.56 0.47 92 1015.7
20260904232604 74 114 0.0 1.0 0.00 0.56 0.47 92 1015.6
20260904232503 74 109 0.0 1.0 0.00 0.56 0.47 92 1015.7
20260904232403 74 110 0.0 1.0 0.00 0.56 0.47 92 1015.3
20260904232306 74 110 0.0 1.0 0.00 0.57 0.47 91 1015.4
20260904232203 74 127 0.0 2.0 0.00 0.57 0.47 91 1015.6
20260904232103 75 132 0.0 2.0 0.00 0.57 0.47 91 1015.4
20260904232024 75 134 0.0 2.0 0.00 0.57 0.47 91 1015.4
20260904231903 75 136 0.0 2.0 0.00 0.57 0.47 90 1015.0
20260904231803 75 136 0.0 2.0 0.00 0.57 0.47 90 1015.0
20260904231703 75 133 0.0 2.0 0.00 0.58 0.47 90 1015.0
20260904231604 75 141 1.0 2.0 0.00 0.58 0.47 90 1015.1
20260904231503 75 145 1.0 2.0 0.00 0.58 0.47 89 1015.0
20260904231424 75 147 1.0 2.0 0.00 0.58 0.47 89 1015.3
20260904231304 75 153 1.0 2.0 0.00 0.59 0.47 88 1015.4
20260904231224 75 152 1.0 2.0 0.00 0.59 0.47 88 1015.5
20260904231103 75 152 0.0 2.0 0.00 0.59 0.47 88 1015.5
20260904231025 75 154 0.0 2.0 0.00 0.59 0.47 88 1015.5
20260904230904 75 153 0.0 2.0 0.00 0.59 0.47 88 1015.5
20260904230804 75 150 0.0 2.0 0.00 0.59 0.47 88 1015.4
20260904230704 75 160 0.0 2.0 0.00 0.60 0.47 88 1015.5
20260904230604 75 152 0.0 2.0 0.00 0.60 0.47 88 1015.4
20260904230504 75 159 0.0 2.0 0.00 0.60 0.47 88 1015.6
20260904230424 75 165 0.0 2.0 0.00 0.60 0.47 88 1015.4
20260904230303 75 134 0.0 2.0 0.00 0.61 0.47 88 1015.5
20260904230204 75 138 0.0 2.0 0.00 0.61 0.47 89 1015.5
20260904230025 75 127 0.0 2.0 0.00 0.62 0.47 89 1015.4
20260904225924 75 133 1.0 2.0 0.00 0.62 0.47 89 1015.4
20260904225802 75 136 0.0 2.0 0.00 0.62 0.47 89 1015.5
20260904225703 75 132 0.0 2.0 0.00 0.63 0.47 89 1015.4
20260904225602 76 121 0.0 2.0 0.00 0.63 0.47 90 1015.3
20260904225504 76 119 0.0 2.0 0.00 0.64 0.47 90 1015.5
20260904225425 76 119 0.0 2.0 0.00 0.64 0.47 90 1015.4
20260904225305 76 125 0.0 2.0 0.00 0.65 0.47 88 1015.3
20260904225204 76 123 0.0 2.0 0.00 0.65 0.47 88 1015.6
20260904225103 76 135 0.0 2.0 0.00 0.66 0.47 89 1015.4
20260904225003 76 138 0.0 2.0 0.00 0.66 0.47 89 1015.4
20260904224904 76 120 0.0 1.0 0.00 0.66 0.47 90 1015.2
20260904224803 76 120 0.0 1.0 0.00 0.66 0.47 90 1015.4
20260904224703 76 126 0.0 1.0 0.00 0.67 0.47 90 1015.3
20260904224604 76 131 0.0 1.0 0.00 0.67 0.47 90 1015.4
20260904224503 76 131 0.0 1.0 0.00 0.68 0.47 90 1015.1
20260904224403 76 131 0.0 1.0 0.00 0.69 0.47 90 1015.3
20260904224303 76 131 0.0 1.0 0.00 0.70 0.47 90 1015.5
20260904224225 76 130 0.0 1.0 0.00 0.71 0.47 90 1015.2
20260904224125 76 112 0.0 1.0 0.00 0.73 0.47 90 1015.2
20260904224004 76 112 0.0 1.0 0.00 0.74 0.47 90 1015.3
20260904223902 76 104 0.0 1.0 0.00 0.77 0.47 90 1015.2
20260904223803 76 104 0.0 1.0 0.00 0.80 0.47 90 1015.4
20260904223703 76 104 0.0 1.0 0.00 0.84 0.47 89 1015.2
20260904223604 76 104 0.0 1.0 0.00 0.87 0.47 89 1015.1
20260904223503 76 104 0.0 1.0 0.00 0.91 0.47 89 1015.0
20260904223403 76 104 0.0 1.0 0.00 0.95 0.47 89 1015.1
20260904223304 76 104 0.0 1.0 0.00 0.96 0.47 89 1015.2
20260904223224 76 104 0.0 1.0 0.00 0.98 0.47 89 1015.2
20260904223103 76 0 0.0 0.0 0.00 1.00 0.47 89 1014.9
20260904223003 76 93 0.0 1.0 0.00 1.03 0.47 90 1015.0
20260904222904 76 93 0.0 1.0 0.00 1.05 0.47 89 1015.0
20260904222803 76 93 0.0 1.0 0.00 1.07 0.47 89 1014.9
20260904222703 76 93 0.0 1.0 0.00 1.11 0.47 89 1014.8
20260904222603 76 93 0.0 1.0 0.00 1.15 0.47 89 1014.9
20260904222503 76 93 0.0 1.0 0.00 1.23 0.47 89 1015.0
20260904222403 76 93 0.0 1.0 0.00 1.27 0.47 89 1015.0
20260904222306 76 93 0.0 1.0 0.00 1.30 0.47 88 1015.2
20260904222203 76 93 0.0 1.0 0.00 1.31 0.47 88 1014.9
20260904222124 76 93 0.0 1.0 0.00 1.32 0.47 88 1014.9
20260904222003 76 108 0.0 1.0 0.00 1.33 0.47 88 1015.0
20260904221903 77 124 0.0 1.0 0.00 1.33 0.47 88 1015.0
20260904221803 77 97 0.0 2.0 0.00 1.33 0.47 88 1015.1
20260904221703 77 95 0.0 2.0 0.00 1.34 0.47 88 1015.0
20260904221624 77 95 0.0 2.0 0.00 1.36 0.47 88 1015.1
20260904221503 76 95 0.0 2.0 0.00 1.38 0.47 88 1014.9
20260904221403 76 95 0.0 2.0 0.00 1.39 0.47 88 1014.9
20260904221303 76 95 0.0 2.0 0.00 1.40 0.47 88 1015.0
20260904221225 76 95 0.0 2.0 0.00 1.40 0.47 88 1015.0
20260904221104 76 95 0.0 2.0 0.00 1.40 0.47 87 1014.8
20260904221003 76 93 0.0 2.0 0.00 1.41 0.47 88 1014.9
20260904220903 76 91 0.0 2.0 0.00 1.41 0.47 88 1014.9
20260904220804 77 110 0.0 1.0 0.00 1.41 0.47 88 1014.7
20260904220724 77 123 0.0 1.0 0.00 1.41 0.47 88 1014.9
20260904220603 77 123 0.0 1.0 0.00 1.42 0.47 87 1014.8
20260904220503 77 123 0.0 1.0 0.00 1.42 0.47 87 1014.7
20260904220404 77 123 0.0 1.0 0.00 1.42 0.47 87 1014.6
20260904220304 77 123 0.0 1.0 0.00 1.42 0.47 87 1014.7
20260904220203 77 123 0.0 1.0 0.00 1.42 0.47 87 1014.8
20260904220104 77 123 0.0 1.0 0.00 1.42 0.47 86 1014.5
20260904220024 77 123 0.0 1.0 0.00 1.42 0.47 86 1014.6
20260904215903 77 0 0.0 0.0 0.00 1.42 0.47 87 1014.6
20260904215803 77 0 0.0 0.0 0.00 1.43 0.47 87 1014.6
20260904215704 77 0 0.0 0.0 0.00 1.43 0.47 86 1014.5
20260904215604 77 121 0.0 1.0 0.00 1.43 0.47 86 1014.7
20260904215504 77 127 0.0 1.0 0.00 1.43 0.47 86 1014.7
20260904215404 77 134 0.0 1.0 0.00 1.44 0.47 87 1014.6
20260904215324 77 133 0.0 1.0 0.00 1.46 0.47 87 1014.5
20260904215203 77 133 0.0 1.0 0.00 1.46 0.47 87 1014.7
20260904215103 77 133 0.0 1.0 0.00 1.46 0.47 87 1014.6
20260904215003 77 133 0.0 1.0 0.00 1.46 0.47 87 1014.6
20260904214903 77 133 0.0 1.0 0.00 1.46 0.47 87 1014.4
20260904214803 77 133 0.0 1.0 0.00 1.46 0.47 87 1014.6
20260904214704 77 133 0.0 1.0 0.00 1.46 0.47 86 1014.4
20260904214603 77 130 0.0 2.0 0.00 1.46 0.47 86 1014.5
20260904214503 77 128 0.0 2.0 0.00 1.46 0.47 86 1014.5
20260904214404 77 125 0.0 2.0 0.00 1.46 0.47 86 1014.6
20260904214303 77 124 0.0 2.0 0.00 1.46 0.47 87 1014.6
20260904214203 77 123 0.0 2.0 0.00 1.46 0.47 87 1014.5
20260904214103 77 124 0.0 2.0 0.00 1.46 0.47 88 1014.6
20260904214024 76 125 0.0 2.0 0.00 1.46 0.47 87 1014.6
20260904213903 76 128 1.0 3.0 0.00 1.46 0.47 87 1014.5
20260904213804 76 128 1.0 3.0 0.00 1.46 0.47 87 1014.5
20260904213725 76 128 1.0 3.0 0.00 1.46 0.47 88 1014.5
20260904213625 76 128 1.0 3.0 0.00 1.46 0.47 87 1014.4
20260904213503 76 129 1.0 3.0 0.00 1.46 0.47 87 1014.2
20260904213403 76 129 1.0 3.0 0.00 1.46 0.47 88 1014.1
20260904213303 76 130 1.0 3.0 0.00 1.46 0.47 88 1014.4
20260904213204 76 131 0.0 3.0 0.00 1.46 0.47 88 1014.4
20260904213103 76 132 0.0 3.0 0.00 1.46 0.47 87 1014.4
20260904213003 77 130 0.0 3.0 0.00 1.46 0.47 87 1014.2
20260904212903 77 128 0.0 2.0 0.00 1.46 0.47 87 1014.3
20260904212803 77 127 0.0 1.0 0.00 1.46 0.47 87 1014.2
20260904212702 77 128 0.0 1.0 0.00 1.46 0.47 87 1014.1
20260904212604 77 130 0.0 1.0 0.00 1.46 0.47 87 1014.1
20260904212504 77 130 0.0 2.0 0.00 1.46 0.47 87 1014.1
20260904212404 77 129 0.0 2.0 0.00 1.46 0.47 87 1014.1
20260904212306 76 127 0.0 2.0 0.00 1.46 0.47 87 1014.0
20260904212203 76 126 0.0 2.0 0.00 1.46 0.47 87 1014.3
20260904212103 77 125 0.0 2.0 0.00 1.46 0.47 87 1014.3
20260904212025 77 127 1.0 2.0 0.00 1.46 0.47 86 1014.2
20260904211904 77 127 1.0 2.0 0.00 1.46 0.47 86 1014.1
20260904211804 76 127 1.0 2.0 0.00 1.46 0.47 86 1014.2
20260904211703 76 127 1.0 2.0 0.00 1.46 0.47 86 1014.2
20260904211604 76 126 1.0 2.0 0.00 1.46 0.47 86 1014.2
20260904211502 76 126 1.0 2.0 0.00 1.46 0.47 87 1014.1
20260904211425 76 126 1.0 2.0 0.00 1.46 0.47 86 1014.1
20260904211303 76 127 1.0 2.0 0.00 1.46 0.47 86 1014.1
20260904211204 77 128 1.0 2.0 0.00 1.46 0.47 85 1014.1
20260904211124 77 128 0.0 2.0 0.00 1.46 0.47 85 1014.2
20260904211004 77 130 0.0 2.0 0.00 1.46 0.47 86 1014.1
20260904210904 77 128 0.0 2.0 0.00 1.46 0.47 84 1014.1
20260904210803 77 128 0.0 2.0 0.00 1.46 0.47 85 1014.1
20260904210704 77 127 0.0 2.0 0.00 1.46 0.47 84 1014.0
20260904210604 78 129 0.0 2.0 0.00 1.46 0.47 84 1014.0
20260904210503 78 133 0.0 1.0 0.00 1.46 0.47 84 1014.0
20260904210403 78 133 0.0 1.0 0.00 1.46 0.47 84 1014.1
20260904210304 78 133 0.0 1.0 0.00 1.46 0.47 86 1013.9
20260904210203 77 133 0.0 1.0 0.00 1.46 0.47 86 1013.7
20260904210104 77 122 0.0 1.0 0.00 1.46 0.47 85 1013.8
20260904210025 77 122 0.0 1.0 0.00 1.46 0.47 85 1013.9
20260904205904 77 119 0.0 1.0 0.00 1.46 0.47 85 1013.7
20260904205803 77 118 0.0 2.0 0.00 1.46 0.47 85 1013.6
20260904205704 77 118 0.0 2.0 0.00 1.46 0.47 85 1013.7
20260904205625 77 118 0.0 2.0 0.00 1.46 0.47 85 1013.7
20260904205503 77 115 0.0 2.0 0.00 1.46 0.47 85 1013.7
20260904205403 77 118 0.0 2.0 0.00 1.46 0.47 85 1013.6
20260904205305 77 123 0.0 2.0 0.00 1.46 0.47 86 1013.6
20260904205203 77 132 0.0 3.0 0.00 1.46 0.47 86 1013.6
20260904205104 77 131 0.0 3.0 0.00 1.46 0.47 86 1013.5
20260904205003 77 129 0.0 3.0 0.00 1.46 0.47 86 1013.6
20260904204904 77 129 0.0 3.0 0.00 1.46 0.47 86 1013.5
20260904204802 77 129 0.0 3.0 0.00 1.46 0.47 87 1013.4
20260904204703 76 129 1.0 3.0 0.00 1.46 0.47 87 1013.5
20260904204603 76 129 1.0 3.0 0.00 1.46 0.47 87 1013.4
20260904204503 76 128 1.0 3.0 0.00 1.46 0.47 86 1013.4
20260904204403 76 130 1.0 3.0 0.00 1.46 0.47 86 1013.5
20260904204304 76 130 1.0 3.0 0.00 1.46 0.47 86 1013.6
20260904204204 77 129 1.0 3.0 0.00 1.46 0.47 85 1013.7
20260904204103 76 131 1.0 3.0 0.00 1.46 0.47 86 1013.8
20260904204003 76 131 1.0 3.0 0.00 1.46 0.47 87 1013.7
20260904203924 76 130 1.0 3.0 0.00 1.46 0.47 87 1013.7
20260904203802 76 131 1.0 3.0 0.00 1.46 0.47 87 1013.9
20260904203703 76 132 1.0 3.0 0.00 1.46 0.47 88 1013.8
20260904203602 76 136 1.0 3.0 0.00 1.46 0.47 88 1013.6
20260904203503 76 140 1.0 3.0 0.00 1.46 0.47 87 1013.8
20260904203403 77 140 1.0 3.0 0.00 1.46 0.47 87 1014.0
20260904203324 77 142 1.0 3.0 0.00 1.46 0.47 86 1014.0
20260904203204 78 141 1.0 3.0 0.00 1.46 0.47 86 1013.8
20260904203104 78 142 1.0 3.0 0.00 1.46 0.47 86 1013.8
20260904203003 78 144 1.0 3.0 0.00 1.46 0.47 85 1013.8
20260904202903 77 152 1.0 3.0 0.00 1.46 0.47 85 1013.8
20260904202803 77 152 1.0 3.0 0.00 1.46 0.47 85 1013.9
20260904202704 77 161 1.0 4.0 0.00 1.46 0.47 84 1013.9
20260904202625 77 167 1.0 4.0 0.00 1.46 0.47 84 1013.9
20260904202503 77 158 1.0 4.0 0.00 1.46 0.47 85 1013.9
20260904202425 77 160 1.0 4.0 0.00 1.46 0.47 85 1013.9
20260904202306 77 157 1.0 4.0 0.00 1.46 0.47 85 1013.9
20260904202203 77 154 1.0 4.0 0.00 1.46 0.47 85 1014.0
20260904202103 77 152 1.0 4.0 0.00 1.46 0.47 86 1014.0
20260904202003 77 151 1.0 4.0 0.00 1.46 0.47 85 1014.2
20260904201903 77 149 1.0 4.0 0.00 1.46 0.47 85 1014.0
20260904201802 77 146 1.0 4.0 0.00 1.46 0.47 86 1014.1
20260904201724 77 145 1.0 4.0 0.00 1.46 0.47 86 1014.1
20260904201625 76 132 1.0 3.0 0.00 1.46 0.47 87 1014.2
20260904201503 76 135 1.0 3.0 0.00 1.46 0.47 86 1014.1
20260904201403 76 133 1.0 3.0 0.00 1.46 0.47 87 1013.9
20260904201304 77 139 1.0 3.0 0.00 1.46 0.47 87 1014.0
20260904201203 77 151 1.0 3.0 0.00 1.46 0.47 85 1014.1
20260904201103 77 156 1.0 3.0 0.00 1.46 0.47 86 1014.1
20260904201003 77 157 1.0 3.0 0.00 1.46 0.47 86 1014.1
20260904200903 77 154 1.0 3.0 0.00 1.46 0.47 86 1014.2
20260904200824 77 150 1.0 3.0 0.00 1.46 0.47 86 1014.2
20260904200703 77 151 1.0 3.0 0.00 1.46 0.47 86 1014.2
20260904200603 77 152 1.0 3.0 0.00 1.46 0.47 85 1014.4
20260904200503 77 151 1.0 3.0 0.00 1.46 0.47 85 1014.2
20260904200403 77 147 1.0 3.0 0.00 1.46 0.47 85 1014.4
20260904200303 77 149 1.0 3.0 0.00 1.46 0.47 86 1014.4
20260904200203 77 144 1.0 4.0 0.00 1.46 0.47 85 1014.3
20260904200003 77 146 1.0 4.0 0.00 1.46 0.47 86 1014.4
20260904195904 77 148 1.0 4.0 0.00 1.46 0.47 86 1014.4
20260904195803 77 151 1.0 4.0 0.00 1.46 0.47 85 1014.4
20260904195703 77 149 1.0 4.0 0.00 1.46 0.47 87 1014.6
20260904195603 77 153 1.0 4.0 0.00 1.46 0.47 85 1014.8
20260904195503 77 152 1.0 4.0 0.00 1.46 0.47 87 1014.5
20260904195404 77 155 1.0 4.0 0.00 1.46 0.47 86 1014.7
20260904195325 77 153 1.0 4.0 0.00 1.46 0.47 86 1014.6
20260904195225 77 151 1.0 4.0 0.00 1.46 0.47 86 1014.8
20260904195103 77 143 1.0 3.0 0.00 1.46 0.47 86 1014.7
20260904195024 77 142 1.0 3.0 0.00 1.46 0.47 85 1014.5
20260904194903 76 150 1.0 3.0 0.00 1.46 0.47 86 1014.7
20260904194803 76 144 1.0 3.0 0.00 1.46 0.47 87 1014.9
20260904194703 76 162 1.0 3.0 0.00 1.46 0.47 86 1015.1
20260904194604 76 156 1.0 3.0 0.00 1.46 0.47 86 1014.9
20260904194503 77 155 1.0 3.0 0.00 1.47 0.47 86 1015.1
20260904194403 77 150 1.0 2.0 0.00 1.48 0.47 85 1015.0
20260904194302 77 148 1.0 2.0 0.00 1.49 0.47 85 1014.9
20260904194203 77 161 0.0 2.0 0.00 1.51 0.47 85 1014.9
20260904194103 77 154 0.0 2.0 0.00 1.51 0.47 85 1015.0
20260904194003 77 152 0.0 2.0 0.00 1.51 0.47 84 1015.1
20260904193903 77 148 1.0 3.0 0.00 1.52 0.47 85 1015.1
20260904193803 77 150 1.0 3.0 0.00 1.52 0.47 86 1015.0
20260904193703 76 146 1.0 4.0 0.00 1.52 0.47 85 1015.0
20260904193603 76 151 1.0 4.0 0.00 1.52 0.47 86 1015.1
20260904193504 76 147 1.0 4.0 0.00 1.53 0.47 88 1015.1
20260904193404 75 148 1.0 4.0 0.00 1.53 0.47 88 1015.0
20260904193303 75 148 1.0 4.0 0.00 1.53 0.47 88 1015.0
20260904193203 75 149 1.0 4.0 0.00 1.53 0.47 88 1015.0
20260904193104 75 159 1.0 4.0 0.00 1.53 0.47 89 1015.0
20260904193024 75 162 1.0 4.0 0.00 1.53 0.47 89 1015.0
20260904192925 75 169 2.0 4.0 0.00 1.53 0.47 88 1015.1
20260904192803 75 182 1.0 4.0 0.00 1.53 0.47 88 1015.1
20260904192703 75 187 1.0 4.0 0.00 1.53 0.47 88 1015.1
20260904192624 75 190 1.0 3.0 0.00 1.53 0.47 89 1015.1
20260904192504 75 195 1.0 3.0 0.00 1.53 0.47 89 1015.3
20260904192403 75 199 1.0 3.0 0.00 1.53 0.47 88 1015.3
20260904192306 75 201 1.0 3.0 0.00 1.53 0.47 89 1015.4
20260904192204 75 205 1.0 3.0 0.00 1.53 0.47 89 1015.4
20260904192124 75 198 1.0 3.0 0.00 1.53 0.47 89 1015.4
20260904192003 75 205 1.0 3.0 0.00 1.53 0.47 90 1015.4
20260904191903 75 193 1.0 3.0 0.00 1.53 0.47 90 1015.5
20260904191804 75 151 0.0 3.0 0.00 1.53 0.47 91 1015.5
20260904191703 75 135 0.0 3.0 0.00 1.53 0.47 92 1015.5
20260904191603 75 135 0.0 3.0 0.00 1.53 0.47 93 1015.6
20260904191525 74 134 0.0 3.0 0.00 1.53 0.47 93 1015.4
20260904191403 74 122 0.0 3.0 0.00 1.53 0.47 94 1015.6
20260904191303 74 152 1.0 3.0 0.00 1.53 0.47 94 1015.9
20260904191204 74 152 1.0 3.0 0.00 1.53 0.47 94 1015.6
20260904191124 74 168 1.0 3.0 0.00 1.53 0.47 94 1015.9
20260904191003 74 168 1.0 4.0 0.00 1.53 0.47 95 1015.7
20260904190904 74 167 1.0 4.0 0.00 1.53 0.47 95 1015.7
20260904190824 74 176 1.0 4.0 0.00 1.53 0.47 95 1015.7
20260904190704 73 171 1.0 4.0 0.00 1.53 0.47 95 1015.7
20260904190624 73 178 1.0 4.0 0.00 1.53 0.47 95 1015.7
20260904190524 73 181 2.0 4.0 0.00 1.53 0.47 95 1015.9
20260904190403 73 189 2.0 4.0 0.00 1.53 0.47 95 1016.0
20260904190325 73 188 2.0 4.0 0.00 1.53 0.47 95 1016.1
20260904190204 73 197 2.0 4.0 0.00 1.53 0.47 95 1016.1
20260904190104 73 189 2.0 4.0 0.00 1.53 0.47 95 1016.2
20260904190025 73 188 2.0 4.0 0.00 1.53 0.47 96 1016.2
20260904185904 73 188 2.0 4.0 0.00 1.53 0.47 96 1016.1
20260904185803 73 188 2.0 4.0 0.00 1.53 0.47 96 1016.0
20260904185703 73 197 2.0 4.0 0.00 1.53 0.47 96 1016.0
20260904185602 73 196 2.0 4.0 0.00 1.53 0.47 96 1016.1
20260904185503 73 193 2.0 4.0 0.00 1.53 0.47 97 1016.0
20260904185403 73 194 2.0 4.0 0.00 1.53 0.47 97 1016.0
20260904185306 73 188 1.0 4.0 0.00 1.53 0.47 97 1015.9
20260904185203 73 176 1.0 4.0 0.00 1.53 0.47 97 1015.7
20260904185103 73 170 1.0 4.0 0.00 1.53 0.47 97 1015.6
20260904185004 73 168 1.0 4.0 0.00 1.53 0.47 97 1015.9
20260904184904 73 164 1.0 4.0 0.00 1.53 0.47 97 1015.9
20260904184803 73 164 1.0 4.0 0.00 1.53 0.47 97 1015.6
20260904184704 73 156 1.0 4.0 0.00 1.53 0.47 97 1015.6
20260904184603 73 145 1.0 3.0 0.00 1.53 0.47 97 1015.6
20260904184504 73 142 1.0 3.0 0.00 1.53 0.47 97 1015.5
20260904184404 73 141 1.0 3.0 0.00 1.53 0.47 97 1015.4
20260904184303 73 143 1.0 3.0 0.00 1.53 0.47 97 1015.7
20260904184204 73 138 1.0 3.0 0.00 1.53 0.47 98 1015.4
20260904184103 73 139 1.0 3.0 0.00 1.53 0.47 97 1015.3
20260904184003 73 130 1.0 2.0 0.00 1.53 0.47 98 1015.1
20260904183903 73 130 1.0 2.0 0.00 1.53 0.47 98 1015.4
20260904183825 73 129 1.0 2.0 0.00 1.53 0.47 98 1015.4
20260904183703 73 129 1.0 2.0 0.00 1.53 0.47 98 1015.1
20260904183603 73 129 1.0 2.0 0.00 1.53 0.47 98 1015.2
20260904183504 73 129 1.0 2.0 0.00 1.53 0.47 98 1015.2
20260904183424 73 129 0.0 2.0 0.00 1.53 0.47 97 1015.0
20260904183303 73 127 0.0 2.0 0.00 1.53 0.47 98 1015.2
20260904183203 72 128 0.0 2.0 0.00 1.53 0.47 98 1015.1
20260904183103 72 132 0.0 2.0 0.00 1.53 0.47 98 1015.4
20260904183024 73 134 0.0 2.0 0.00 1.53 0.47 98 1015.3
20260904182903 73 132 0.0 2.0 0.00 1.53 0.47 98 1015.4
20260904182803 73 136 0.0 2.0 0.00 1.53 0.47 98 1015.5
20260904182702 72 127 0.0 2.0 0.00 1.53 0.47 98 1015.5
20260904182624 72 127 0.0 3.0 0.00 1.53 0.47 98 1015.7
20260904182503 72 126 0.0 3.0 0.00 1.53 0.47 98 1015.5
20260904182403 72 126 1.0 3.0 0.00 1.53 0.47 98 1015.9
20260904182306 72 128 1.0 3.0 0.00 1.53 0.47 98 1015.6
20260904182203 72 128 1.0 3.0 0.00 1.53 0.47 98 1015.9
20260904182103 72 128 1.0 3.0 0.00 1.53 0.47 98 1015.7
20260904182024 72 128 1.0 3.0 0.00 1.53 0.47 98 1015.6
20260904181903 72 128 1.0 3.0 0.00 1.53 0.47 98 1015.4
20260904181804 72 127 1.0 3.0 0.00 1.53 0.47 98 1015.4
20260904181704 72 130 1.0 3.0 0.00 1.53 0.47 98 1015.5
20260904181603 72 130 1.0 2.0 0.00 1.53 0.47 98 1015.7
20260904181504 72 138 1.0 3.0 0.00 1.53 0.47 98 1016.0
20260904181403 72 163 1.0 4.0 0.00 1.53 0.47 98 1016.0
20260904181303 72 177 1.0 4.0 0.00 1.53 0.47 98 1016.2
20260904181203 72 185 1.0 4.0 0.00 1.53 0.47 98 1016.3
20260904181103 72 182 1.0 4.0 0.00 1.53 0.47 98 1016.3
20260904181025 72 182 1.0 4.0 0.00 1.53 0.47 98 1016.3
20260904180904 72 187 1.0 4.0 0.00 1.53 0.47 98 1016.7
20260904180803 72 190 1.0 4.0 0.00 1.53 0.47 98 1016.6
20260904180703 72 185 1.0 4.0 0.00 1.53 0.47 98 1016.9
20260904180602 72 188 1.0 4.0 0.00 1.53 0.47 98 1016.9
20260904180503 72 185 1.0 4.0 0.00 1.53 0.47 98 1017.1
20260904180404 72 170 1.0 4.0 0.00 1.53 0.47 98 1016.9
20260904180304 72 164 1.0 3.0 0.00 1.53 0.47 98 1017.0
20260904180203 72 163 1.0 3.0 0.00 1.53 0.47 98 1017.1
20260904180003 72 144 1.0 3.0 0.00 1.53 0.47 98 1017.0
20260904175904 72 143 1.0 3.0 0.00 1.53 0.47 98 1016.9
20260904175803 72 128 1.0 3.0 0.00 1.53 0.47 98 1016.9
20260904175702 72 118 1.0 3.0 0.00 1.53 0.47 98 1017.3
20260904175604 72 101 1.0 3.0 0.00 1.53 0.47 98 1017.2
20260904175504 72 113 1.0 3.0 0.00 1.53 0.47 98 1017.2
20260904175403 72 64 1.0 4.0 0.00 1.53 0.47 98 1017.1
20260904175305 72 57 1.0 4.0 0.00 1.53 0.47 98 1017.3
20260904175204 72 58 1.0 4.0 0.00 1.53 0.47 98 1017.4
20260904175103 72 64 1.0 4.0 0.01 1.53 0.47 98 1017.2
20260904175003 72 85 1.0 4.0 0.01 1.53 0.47 98 1017.3
20260904174903 72 91 1.0 4.0 0.01 1.53 0.47 98 1017.4
20260904174803 72 148 1.0 4.0 0.01 1.53 0.47 98 1017.4
20260904174703 72 143 1.0 4.0 0.03 1.53 0.47 98 1017.4
20260904174603 72 153 1.0 4.0 0.04 1.53 0.47 98 1017.4
20260904174504 72 161 1.0 4.0 0.06 1.53 0.47 98 1017.4
20260904174404 72 168 1.0 2.0 0.07 1.53 0.47 98 1017.3
20260904174303 72 173 1.0 2.0 0.07 1.53 0.47 98 1017.4
20260904174204 72 161 1.0 2.0 0.07 1.53 0.47 98 1017.2
20260904174104 72 146 1.0 2.0 0.07 1.53 0.47 98 1017.6
20260904174024 72 122 1.0 2.0 0.07 1.53 0.47 98 1017.3
20260904173904 72 105 1.0 2.0 0.07 1.53 0.47 99 1017.5
20260904173824 72 105 1.0 2.0 0.07 1.53 0.47 99 1017.6
20260904173704 72 105 1.0 2.0 0.07 1.53 0.47 99 1017.4
20260904173603 72 96 1.0 2.0 0.07 1.53 0.47 98 1017.4
20260904173503 72 85 0.0 2.0 0.07 1.53 0.47 99 1017.5
20260904173403 72 83 0.0 2.0 0.07 1.53 0.47 99 1017.5
20260904173324 72 82 0.0 2.0 0.07 1.53 0.47 99 1017.4
20260904173225 72 82 0.0 2.0 0.07 1.53 0.47 99 1017.5
20260904173124 72 95 0.0 2.0 0.07 1.53 0.47 99 1017.3
20260904173024 72 97 0.0 2.0 0.07 1.53 0.47 99 1017.3
20260904172903 72 79 0.0 3.0 0.07 1.53 0.47 99 1017.3
20260904172803 72 74 0.0 4.0 0.07 1.53 0.47 99 1017.3
20260904172703 72 64 1.0 4.0 0.07 1.53 0.47 99 1017.4
20260904172604 72 68 1.0 4.0 0.07 1.53 0.47 99 1017.2
20260904172503 72 71 1.0 4.0 0.07 1.53 0.47 99 1017.3
20260904172403 72 74 1.0 4.0 0.07 1.53 0.47 99 1017.3
20260904172305 72 76 1.0 4.0 0.07 1.53 0.47 99 1017.6
20260904172204 72 72 1.0 4.0 0.07 1.53 0.47 99 1017.2
20260904172103 72 70 1.0 4.0 0.07 1.53 0.47 99 1017.3
20260904172024 72 70 1.0 4.0 0.07 1.53 0.47 99 1017.3
20260904171925 72 70 1.0 4.0 0.07 1.53 0.47 99 1017.4
20260904171803 72 76 1.0 3.0 0.07 1.53 0.47 99 1017.2
20260904171703 72 77 1.0 3.0 0.07 1.53 0.47 99 1017.4
20260904171603 72 79 1.0 3.0 0.07 1.53 0.47 99 1017.4
20260904171504 72 77 1.0 3.0 0.07 1.53 0.47 99 1017.4
20260904171404 72 75 1.0 3.0 0.07 1.53 0.47 99 1017.3
20260904171303 72 70 1.0 3.0 0.07 1.53 0.47 99 1017.4
20260904171204 72 74 1.0 3.0 0.07 1.53 0.47 99 1017.5
20260904171103 72 60 1.0 3.0 0.07 1.53 0.47 99 1017.5
20260904171003 72 62 1.0 3.0 0.07 1.53 0.47 99 1017.6
20260904170903 72 59 1.0 3.0 0.07 1.53 0.47 99 1017.7
20260904170824 72 54 1.0 3.0 0.07 1.53 0.47 99 1017.8
20260904170703 72 55 1.0 2.0 0.07 1.53 0.47 99 1017.9
20260904170603 72 41 1.0 2.0 0.07 1.53 0.47 99 1017.6
20260904170503 72 8 1.0 2.0 0.07 1.53 0.47 99 1017.5
20260904170403 72 36 1.0 2.0 0.07 1.53 0.47 99 1017.6
20260904170304 72 23 1.0 2.0 0.07 1.53 0.47 99 1017.4
20260904170224 72 357 0.0 2.0 0.07 1.53 0.47 99 1017.7
20260904170004 72 71 0.0 2.0 0.07 1.53 0.47 99 1017.5
20260904165903 71 60 0.0 2.0 0.07 1.53 0.47 99 1017.5
20260904165803 71 71 0.0 2.0 0.07 1.53 0.47 99 1017.4
20260904165724 71 79 0.0 2.0 0.07 1.53 0.47 99 1017.4
20260904165603 71 80 0.0 2.0 0.07 1.53 0.47 99 1017.5
20260904165503 71 77 0.0 2.0 0.07 1.53 0.47 99 1017.6
20260904165403 71 76 0.0 3.0 0.07 1.53 0.47 99 1017.4
20260904165305 71 89 0.0 3.0 0.07 1.53 0.47 99 1017.5
20260904165204 71 87 1.0 3.0 0.07 1.53 0.47 99 1017.4
20260904165104 71 96 1.0 3.0 0.06 1.52 0.46 99 1017.4
20260904165003 71 93 1.0 3.0 0.06 1.52 0.46 99 1017.4
20260904164904 71 76 1.0 6.0 0.06 1.52 0.46 99 1017.4
20260904164803 71 88 1.0 6.0 0.06 1.52 0.46 99 1017.3
20260904164725 71 45 1.0 6.0 0.04 1.50 0.45 99 1017.3
20260904164604 71 134 1.0 6.0 0.03 1.49 0.43 99 1017.5
20260904164525 71 116 2.0 6.0 0.01 1.47 0.42 99 1017.6
20260904164403 71 121 2.0 6.0 0.00 1.46 0.40 99 1017.7
20260904164324 71 120 2.0 6.0 0.00 1.46 0.40 99 1017.7
20260904164204 71 137 2.0 6.0 0.00 1.46 0.40 99 1017.8
20260904164103 71 108 1.0 6.0 0.00 1.46 0.40 99 1018.0
20260904164003 71 110 1.0 6.0 0.00 1.46 0.40 99 1018.0
20260904163904 71 118 1.0 6.0 0.00 1.46 0.40 99 1018.0
20260904163803 71 93 1.0 3.0 0.00 1.46 0.40 99 1017.9
20260904163703 71 83 1.0 3.0 0.00 1.46 0.40 99 1017.8
20260904163603 71 70 1.0 3.0 0.00 1.46 0.40 99 1017.8
20260904163524 71 67 1.0 3.0 0.00 1.46 0.40 99 1017.8
20260904163403 71 57 1.0 3.0 0.00 1.46 0.40 99 1017.6
20260904163304 71 62 1.0 3.0 0.00 1.46 0.40 99 1017.7
20260904163203 71 61 1.0 3.0 0.00 1.46 0.40 99 1017.6
20260904163124 71 69 1.0 3.0 0.00 1.46 0.40 99 1017.8
20260904163004 71 67 1.0 3.0 0.00 1.46 0.40 99 1017.8
20260904162903 71 61 1.0 3.0 0.00 1.46 0.40 99 1017.7
20260904162824 71 49 1.0 6.0 0.00 1.46 0.40 99 1017.7
20260904162724 71 57 1.0 6.0 0.00 1.46 0.40 99 1017.7
20260904162604 71 45 2.0 6.0 0.00 1.46 0.40 99 1017.6
20260904162504 71 31 2.0 6.0 0.00 1.46 0.40 99 1017.6
20260904162403 71 40 2.0 6.0 0.00 1.46 0.40 99 1017.7
20260904162305 71 33 2.0 6.0 0.00 1.46 0.40 99 1017.7
20260904162225 71 33 2.0 6.0 0.00 1.46 0.40 99 1017.9
20260904162103 71 30 2.0 6.0 0.00 1.46 0.40 99 1017.7
20260904162003 71 46 2.0 6.0 0.00 1.46 0.40 99 1017.7
20260904161904 71 48 2.0 6.0 0.00 1.46 0.40 99 1017.7
20260904161803 71 47 2.0 4.0 0.00 1.46 0.40 99 1017.7
20260904161702 71 339 2.0 4.0 0.00 1.46 0.40 99 1017.8
20260904161625 71 334 2.0 4.0 0.00 1.46 0.40 99 1017.7
20260904161504 71 331 2.0 4.0 0.00 1.46 0.40 99 1017.7
20260904161403 71 316 2.0 4.0 0.00 1.46 0.40 99 1017.7
20260904161303 71 299 2.0 4.0 0.00 1.46 0.40 99 1017.8
20260904161203 71 286 2.0 4.0 0.00 1.46 0.40 99 1017.7
20260904161103 71 329 2.0 4.0 0.00 1.46 0.40 99 1017.6
20260904161004 71 6 2.0 4.0 0.00 1.46 0.40 99 1017.9
20260904160903 71 15 2.0 4.0 0.00 1.46 0.40 99 1017.8
20260904160824 72 26 2.0 4.0 0.00 1.46 0.40 99 1017.9
20260904160703 72 66 1.0 4.0 0.00 1.46 0.40 99 1018.0
20260904160604 72 79 1.0 4.0 0.00 1.46 0.40 99 1017.9
20260904160504 72 61 2.0 6.0 0.00 1.46 0.40 99 1017.8
20260904160404 72 38 2.0 6.0 0.00 1.46 0.40 99 1018.1
20260904160303 71 40 2.0 6.0 0.00 1.46 0.40 99 1017.9
20260904160224 71 42 2.0 6.0 0.00 1.46 0.40 99 1018.0
20260904160104 71 38 2.0 6.0 0.00 1.46 0.40 99 1017.8
20260904160003 71 24 2.0 6.0 0.00 1.46 0.40 99 1018.0
20260904155903 72 24 2.0 6.0 0.00 1.46 0.40 99 1018.0
20260904155804 71 29 2.0 6.0 0.00 1.46 0.40 99 1018.1
20260904155703 71 19 2.0 6.0 0.00 1.46 0.40 99 1018.0
20260904155624 72 12 1.0 6.0 0.00 1.46 0.40 99 1018.0
20260904155503 72 51 1.0 4.0 0.00 1.46 0.40 99 1017.8
20260904155403 72 75 1.0 3.0 0.00 1.46 0.40 99 1017.9
20260904155306 72 71 1.0 3.0 0.01 1.46 0.40 99 1017.7
20260904155203 72 67 1.0 3.0 0.01 1.46 0.40 99 1017.9
20260904155103 72 63 1.0 3.0 0.01 1.46 0.40 99 1017.7
20260904155004 72 67 1.0 3.0 0.01 1.46 0.40 99 1017.7
20260904154903 72 71 1.0 3.0 0.01 1.46 0.40 99 1017.8
20260904154824 72 69 1.0 3.0 0.01 1.46 0.40 99 1017.8
20260904154702 72 87 1.0 3.0 0.01 1.46 0.40 99 1017.6
20260904154624 71 86 1.0 3.0 0.02 1.46 0.40 99 1017.6
20260904154524 71 81 1.0 3.0 0.02 1.46 0.40 99 1017.8
20260904154403 71 90 1.0 2.0 0.02 1.46 0.40 99 1017.7
20260904154303 71 92 0.0 2.0 0.02 1.46 0.40 99 1017.6
20260904154204 71 96 0.0 2.0 0.02 1.46 0.40 99 1017.6
20260904154125 71 96 0.0 2.0 0.02 1.46 0.40 99 1017.3
20260904154024 71 96 0.0 2.0 0.02 1.46 0.40 99 1017.4
20260904153903 71 96 0.0 2.0 0.02 1.46 0.40 99 1017.5
20260904153803 71 95 0.0 2.0 0.03 1.46 0.40 99 1017.6
20260904153724 71 95 0.0 2.0 0.03 1.46 0.40 99 1017.6
20260904153603 71 118 0.0 1.0 0.03 1.46 0.40 99 1017.4
20260904153504 71 124 0.0 1.0 0.03 1.46 0.40 99 1017.3
20260904153404 71 124 0.0 1.0 0.03 1.46 0.40 99 1017.1
20260904153303 71 124 0.0 1.0 0.03 1.46 0.40 99 1017.3
20260904153203 71 124 0.0 1.0 0.03 1.46 0.40 99 1017.0
20260904153104 71 121 0.0 1.0 0.03 1.46 0.40 99 1017.1
20260904153003 71 120 0.0 3.0 0.03 1.46 0.40 99 1017.1
20260904152903 71 122 0.0 3.0 0.04 1.46 0.40 99 1016.9
20260904152804 71 116 0.0 3.0 0.04 1.46 0.40 99 1016.8
20260904152703 71 116 0.0 3.0 0.04 1.46 0.40 99 1016.8
20260904152604 71 120 0.0 3.0 0.04 1.46 0.40 99 1016.8
20260904152504 71 124 1.0 3.0 0.05 1.46 0.40 99 1016.7
20260904152403 71 126 1.0 4.0 0.05 1.46 0.40 99 1016.8
20260904152306 71 124 1.0 4.0 0.05 1.46 0.40 99 1016.8
20260904152203 71 124 1.0 4.0 0.06 1.46 0.40 99 1016.6
20260904152103 71 124 1.0 4.0 0.06 1.46 0.40 99 1016.8
20260904152003 71 125 1.0 4.0 0.07 1.46 0.40 99 1016.7
20260904151924 71 125 1.0 4.0 0.07 1.46 0.40 99 1016.5
20260904151803 70 126 1.0 4.0 0.07 1.46 0.40 99 1016.4
20260904151703 70 127 1.0 4.0 0.07 1.46 0.40 99 1016.3
20260904151603 70 126 1.0 4.0 0.07 1.46 0.40 99 1016.4
20260904151503 70 122 0.0 4.0 0.08 1.46 0.40 99 1016.4
20260904151404 70 110 0.0 2.0 0.08 1.46 0.40 99 1016.8
20260904151324 70 111 0.0 2.0 0.08 1.46 0.40 99 1016.7
20260904151204 70 105 0.0 2.0 0.08 1.46 0.40 99 1016.7
20260904151103 70 105 0.0 2.0 0.08 1.46 0.40 99 1016.8
20260904151004 70 105 0.0 2.0 0.08 1.46 0.40 99 1016.7
20260904150903 70 0 0.0 0.0 0.09 1.46 0.40 99 1016.7
20260904150825 70 0 0.0 0.0 0.09 1.46 0.40 99 1016.7
20260904150704 70 0 0.0 0.0 0.09 1.46 0.40 99 1017.0
20260904150603 70 0 0.0 0.0 0.09 1.46 0.40 99 1016.9
20260904150504 70 103 0.0 1.0 0.09 1.46 0.40 99 1017.0
20260904150404 70 105 0.0 1.0 0.09 1.46 0.40 99 1017.1
20260904150303 70 105 0.0 1.0 0.09 1.46 0.40 99 1017.4
20260904150224 70 105 0.0 1.0 0.09 1.46 0.40 99 1017.4
20260904150003 69 105 0.0 1.0 0.09 1.46 0.40 99 1017.4
20260904145904 69 105 0.0 1.0 0.09 1.46 0.40 99 1017.3
20260904145804 69 105 0.0 1.0 0.09 1.46 0.40 99 1017.3
20260904145704 69 105 0.0 1.0 0.09 1.46 0.40 99 1017.5
20260904145604 69 105 0.0 1.0 0.09 1.46 0.40 99 1017.3
20260904145524 69 105 0.0 1.0 0.09 1.46 0.40 99 1017.4
20260904145404 69 0 0.0 0.0 0.09 1.46 0.40 99 1017.4
20260904145306 69 0 0.0 0.0 0.08 1.45 0.39 99 1017.4
20260904145203 69 0 0.0 0.0 0.08 1.45 0.39 99 1017.4